| time (UTC) | temp F | wind direction | speed MPH | gust MPH | rain 1hr in | rain 24hr in | rain mn in | humidity % | barometer mb |
| 20260903144905 | 84 | 199 | 9.0 | 15.0 | 0.00 | 0.00 | 0.00 | 74 | 1012.5 |
| 20260903144805 | 84 | 200 | 9.0 | 15.0 | 0.00 | 0.00 | 0.00 | 75 | 1012.5 |
| 20260903144704 | 84 | 200 | 8.0 | 14.0 | 0.00 | 0.00 | 0.00 | 75 | 1012.5 |
| 20260903144605 | 84 | 200 | 8.0 | 14.0 | 0.00 | 0.00 | 0.00 | 74 | 1012.5 |
| 20260903144505 | 84 | 202 | 8.0 | 14.0 | 0.00 | 0.00 | 0.00 | 75 | 1012.5 |
| 20260903144405 | 84 | 205 | 8.0 | 14.0 | 0.00 | 0.00 | 0.00 | 75 | 1012.5 |
| 20260903144304 | 84 | 206 | 8.0 | 14.0 | 0.00 | 0.00 | 0.00 | 75 | 1012.5 |
| 20260903144105 | 83 | 211 | 8.0 | 14.0 | 0.00 | 0.00 | 0.00 | 76 | 1012.5 |
| 20260903144005 | 83 | 214 | 8.0 | 14.0 | 0.00 | 0.00 | 0.00 | 76 | 1012.5 |
| 20260903143904 | 83 | 216 | 8.0 | 14.0 | 0.00 | 0.00 | 0.00 | 76 | 1012.5 |
| 20260903143804 | 83 | 216 | 8.0 | 14.0 | 0.00 | 0.00 | 0.00 | 76 | 1012.5 |
| 20260903143704 | 83 | 217 | 9.0 | 14.0 | 0.00 | 0.00 | 0.00 | 76 | 1012.5 |
| 20260903143605 | 83 | 216 | 9.0 | 14.0 | 0.00 | 0.00 | 0.00 | 76 | 1012.5 |
| 20260903143505 | 83 | 214 | 8.0 | 14.0 | 0.00 | 0.00 | 0.00 | 76 | 1012.5 |
| 20260903143405 | 83 | 214 | 8.0 | 14.0 | 0.00 | 0.00 | 0.00 | 77 | 1012.5 |
| 20260903143305 | 83 | 212 | 8.0 | 14.0 | 0.00 | 0.00 | 0.00 | 77 | 1012.5 |
| 20260903143205 | 83 | 213 | 8.0 | 14.0 | 0.00 | 0.00 | 0.00 | 77 | 1012.5 |
| 20260903143005 | 83 | 207 | 8.0 | 14.0 | 0.00 | 0.00 | 0.00 | 77 | 1012.4 |
| 20260903142905 | 83 | 205 | 8.0 | 14.0 | 0.00 | 0.00 | 0.00 | 77 | 1012.5 |
| 20260903142804 | 83 | 203 | 7.0 | 14.0 | 0.00 | 0.00 | 0.00 | 78 | 1012.5 |
| 20260903142704 | 83 | 204 | 7.0 | 14.0 | 0.00 | 0.00 | 0.00 | 78 | 1012.5 |
| 20260903142605 | 83 | 201 | 8.0 | 13.0 | 0.00 | 0.00 | 0.00 | 78 | 1012.4 |
| 20260903142504 | 83 | 204 | 8.0 | 17.0 | 0.00 | 0.00 | 0.00 | 78 | 1012.4 |
| 20260903142404 | 83 | 204 | 8.0 | 17.0 | 0.00 | 0.00 | 0.00 | 78 | 1012.4 |
| 20260903142306 | 82 | 204 | 9.0 | 17.0 | 0.00 | 0.00 | 0.00 | 78 | 1012.5 |
| 20260903142205 | 82 | 204 | 9.0 | 17.0 | 0.00 | 0.00 | 0.00 | 78 | 1012.4 |
| 20260903142105 | 82 | 204 | 8.0 | 17.0 | 0.00 | 0.00 | 0.00 | 78 | 1012.4 |
| 20260903142004 | 82 | 205 | 8.0 | 17.0 | 0.00 | 0.00 | 0.00 | 78 | 1012.4 |
| 20260903141905 | 82 | 206 | 9.0 | 17.0 | 0.00 | 0.00 | 0.00 | 78 | 1012.4 |
| 20260903141804 | 82 | 207 | 9.0 | 17.0 | 0.00 | 0.00 | 0.00 | 78 | 1012.4 |
| 20260903141705 | 82 | 205 | 8.0 | 17.0 | 0.00 | 0.00 | 0.00 | 78 | 1012.4 |
| 20260903141604 | 82 | 208 | 8.0 | 17.0 | 0.00 | 0.00 | 0.00 | 78 | 1012.4 |
| 20260903141505 | 82 | 207 | 8.0 | 17.0 | 0.00 | 0.00 | 0.00 | 78 | 1012.4 |
| 20260903141405 | 82 | 206 | 8.0 | 17.0 | 0.00 | 0.00 | 0.00 | 78 | 1012.4 |
| 20260903141204 | 82 | 205 | 8.0 | 15.0 | 0.00 | 0.00 | 0.00 | 79 | 1012.5 |
| 20260903141105 | 82 | 206 | 8.0 | 15.0 | 0.00 | 0.00 | 0.00 | 79 | 1012.5 |
| 20260903140905 | 82 | 204 | 8.0 | 15.0 | 0.00 | 0.00 | 0.00 | 79 | 1012.5 |
| 20260903140804 | 82 | 203 | 8.0 | 15.0 | 0.00 | 0.00 | 0.00 | 79 | 1012.5 |
| 20260903140705 | 82 | 202 | 8.0 | 15.0 | 0.00 | 0.00 | 0.00 | 79 | 1012.6 |
| 20260903140604 | 82 | 201 | 9.0 | 15.0 | 0.00 | 0.00 | 0.00 | 79 | 1012.6 |
| 20260903140505 | 82 | 199 | 9.0 | 16.0 | 0.00 | 0.00 | 0.00 | 79 | 1012.5 |
| 20260903140404 | 82 | 198 | 9.0 | 16.0 | 0.00 | 0.00 | 0.00 | 79 | 1012.6 |
| 20260903140105 | 82 | 196 | 10.0 | 16.0 | 0.00 | 0.00 | 0.00 | 79 | 1012.5 |
| 20260903140004 | 82 | 195 | 10.0 | 16.0 | 0.00 | 0.00 | 0.00 | 80 | 1012.5 |
| 20260903135805 | 82 | 194 | 10.0 | 16.0 | 0.00 | 0.00 | 0.00 | 80 | 1012.6 |
| 20260903135705 | 82 | 192 | 10.0 | 16.0 | 0.00 | 0.00 | 0.00 | 80 | 1012.6 |
| 20260903135604 | 82 | 191 | 9.0 | 16.0 | 0.00 | 0.00 | 0.00 | 79 | 1012.7 |
| 20260903135505 | 82 | 190 | 9.0 | 16.0 | 0.00 | 0.00 | 0.00 | 79 | 1012.6 |
| 20260903135404 | 82 | 192 | 8.0 | 16.0 | 0.00 | 0.00 | 0.00 | 79 | 1012.6 |
| 20260903135306 | 82 | 192 | 8.0 | 15.0 | 0.00 | 0.00 | 0.00 | 80 | 1012.6 |
| 20260903135204 | 82 | 190 | 7.0 | 14.0 | 0.00 | 0.00 | 0.00 | 80 | 1012.5 |
| 20260903135004 | 82 | 189 | 6.0 | 12.0 | 0.00 | 0.00 | 0.00 | 80 | 1012.6 |
| 20260903134904 | 82 | 191 | 6.0 | 12.0 | 0.00 | 0.00 | 0.00 | 80 | 1012.6 |
| 20260903134804 | 82 | 190 | 6.0 | 14.0 | 0.00 | 0.00 | 0.00 | 80 | 1012.6 |
| 20260903134705 | 82 | 191 | 6.0 | 14.0 | 0.00 | 0.00 | 0.00 | 80 | 1012.6 |
| 20260903134504 | 81 | 190 | 7.0 | 14.0 | 0.00 | 0.00 | 0.00 | 80 | 1012.6 |
| 20260903134404 | 81 | 190 | 7.0 | 14.0 | 0.00 | 0.00 | 0.00 | 81 | 1012.6 |
| 20260903134305 | 81 | 191 | 7.0 | 14.0 | 0.00 | 0.00 | 0.00 | 81 | 1012.6 |
| 20260903134204 | 81 | 191 | 7.0 | 14.0 | 0.00 | 0.00 | 0.00 | 81 | 1012.5 |
| 20260903134105 | 81 | 193 | 8.0 | 14.0 | 0.00 | 0.00 | 0.00 | 81 | 1012.6 |
| 20260903134004 | 81 | 193 | 8.0 | 14.0 | 0.00 | 0.00 | 0.00 | 81 | 1012.5 |
| 20260903133905 | 81 | 192 | 8.0 | 14.0 | 0.00 | 0.00 | 0.00 | 81 | 1012.6 |
| 20260903133804 | 81 | 192 | 8.0 | 14.0 | 0.00 | 0.00 | 0.00 | 81 | 1012.5 |
| 20260903133505 | 81 | 193 | 8.0 | 14.0 | 0.00 | 0.00 | 0.00 | 81 | 1012.5 |
| 20260903133405 | 81 | 193 | 7.0 | 14.0 | 0.00 | 0.00 | 0.00 | 81 | 1012.5 |
| 20260903133305 | 81 | 192 | 7.0 | 14.0 | 0.00 | 0.00 | 0.00 | 81 | 1012.5 |
| 20260903133205 | 81 | 193 | 7.0 | 14.0 | 0.00 | 0.00 | 0.00 | 81 | 1012.5 |
| 20260903133104 | 81 | 193 | 7.0 | 14.0 | 0.00 | 0.00 | 0.00 | 81 | 1012.6 |
| 20260903133004 | 81 | 192 | 7.0 | 12.0 | 0.00 | 0.00 | 0.00 | 82 | 1012.5 |
| 20260903132705 | 81 | 192 | 7.0 | 12.0 | 0.00 | 0.00 | 0.00 | 82 | 1012.6 |
| 20260903132604 | 80 | 192 | 7.0 | 12.0 | 0.00 | 0.00 | 0.00 | 82 | 1012.5 |
| 20260903132505 | 81 | 193 | 7.0 | 12.0 | 0.00 | 0.00 | 0.00 | 82 | 1012.5 |
| 20260903132306 | 80 | 191 | 7.0 | 12.0 | 0.00 | 0.00 | 0.00 | 82 | 1012.6 |
| 20260903132205 | 80 | 191 | 7.0 | 12.0 | 0.00 | 0.00 | 0.00 | 82 | 1012.6 |
| 20260903132104 | 80 | 189 | 7.0 | 12.0 | 0.00 | 0.00 | 0.00 | 82 | 1012.6 |
| 20260903132005 | 80 | 189 | 7.0 | 12.0 | 0.00 | 0.00 | 0.00 | 82 | 1012.6 |
| 20260903131904 | 80 | 191 | 7.0 | 12.0 | 0.00 | 0.00 | 0.00 | 82 | 1012.5 |
| 20260903131804 | 80 | 191 | 6.0 | 12.0 | 0.00 | 0.00 | 0.00 | 82 | 1012.6 |
| 20260903131704 | 80 | 191 | 6.0 | 12.0 | 0.00 | 0.00 | 0.00 | 82 | 1012.5 |
| 20260903131605 | 80 | 191 | 7.0 | 12.0 | 0.00 | 0.00 | 0.00 | 82 | 1012.6 |
| 20260903131505 | 80 | 191 | 6.0 | 12.0 | 0.00 | 0.00 | 0.00 | 82 | 1012.6 |
| 20260903131305 | 80 | 194 | 6.0 | 11.0 | 0.00 | 0.00 | 0.00 | 82 | 1012.6 |
| 20260903131204 | 80 | 194 | 6.0 | 11.0 | 0.00 | 0.00 | 0.00 | 82 | 1012.6 |
| 20260903131104 | 80 | 196 | 6.0 | 12.0 | 0.00 | 0.00 | 0.00 | 82 | 1012.6 |
| 20260903130905 | 80 | 195 | 6.0 | 12.0 | 0.00 | 0.00 | 0.00 | 82 | 1012.6 |
| 20260903130605 | 80 | 193 | 7.0 | 12.0 | 0.00 | 0.00 | 0.00 | 83 | 1012.6 |
| 20260903130506 | 80 | 193 | 7.0 | 12.0 | 0.00 | 0.00 | 0.00 | 83 | 1012.6 |
| 20260903130404 | 80 | 192 | 7.0 | 12.0 | 0.00 | 0.00 | 0.00 | 83 | 1012.6 |
| 20260903130304 | 80 | 192 | 7.0 | 12.0 | 0.00 | 0.00 | 0.00 | 83 | 1012.6 |
| 20260903130205 | 80 | 191 | 7.0 | 12.0 | 0.00 | 0.00 | 0.00 | 83 | 1012.6 |
| 20260903130104 | 80 | 190 | 7.0 | 12.0 | 0.00 | 0.00 | 0.00 | 83 | 1012.6 |
| 20260903130005 | 80 | 190 | 6.0 | 12.0 | 0.00 | 0.00 | 0.00 | 83 | 1012.6 |
| 20260903125904 | 80 | 191 | 7.0 | 11.0 | 0.00 | 0.00 | 0.00 | 83 | 1012.6 |
| 20260903125805 | 80 | 191 | 7.0 | 11.0 | 0.00 | 0.00 | 0.00 | 83 | 1012.5 |
| 20260903125604 | 80 | 190 | 7.0 | 13.0 | 0.00 | 0.00 | 0.00 | 83 | 1012.5 |
| 20260903125306 | 80 | 189 | 8.0 | 13.0 | 0.00 | 0.00 | 0.00 | 83 | 1012.5 |
| 20260903125204 | 80 | 189 | 7.0 | 13.0 | 0.00 | 0.00 | 0.00 | 83 | 1012.5 |
| 20260903125104 | 80 | 189 | 7.0 | 13.0 | 0.00 | 0.00 | 0.00 | 83 | 1012.5 |
| 20260903124904 | 80 | 188 | 7.0 | 13.0 | 0.00 | 0.00 | 0.00 | 83 | 1012.5 |
| 20260903124806 | 80 | 190 | 7.0 | 13.0 | 0.00 | 0.00 | 0.00 | 83 | 1012.5 |
| 20260903124504 | 80 | 191 | 7.0 | 13.0 | 0.00 | 0.00 | 0.00 | 83 | 1012.5 |
| 20260903124306 | 80 | 190 | 6.0 | 12.0 | 0.00 | 0.00 | 0.00 | 84 | 1012.4 |
| 20260903124204 | 80 | 189 | 6.0 | 12.0 | 0.00 | 0.00 | 0.00 | 84 | 1012.5 |
| 20260903124104 | 79 | 189 | 7.0 | 12.0 | 0.00 | 0.00 | 0.00 | 84 | 1012.5 |
| 20260903123805 | 79 | 186 | 7.0 | 12.0 | 0.00 | 0.00 | 0.00 | 84 | 1012.4 |
| 20260903123704 | 79 | 187 | 7.0 | 12.0 | 0.00 | 0.00 | 0.00 | 84 | 1012.4 |
| 20260903123604 | 79 | 187 | 7.0 | 12.0 | 0.00 | 0.00 | 0.00 | 84 | 1012.4 |
| 20260903123504 | 79 | 187 | 6.0 | 12.0 | 0.00 | 0.00 | 0.00 | 84 | 1012.4 |
| 20260903123305 | 79 | 189 | 6.0 | 12.0 | 0.00 | 0.00 | 0.00 | 84 | 1012.4 |
| 20260903123204 | 79 | 190 | 6.0 | 12.0 | 0.00 | 0.00 | 0.00 | 84 | 1012.4 |
| 20260903123004 | 79 | 191 | 6.0 | 12.0 | 0.00 | 0.00 | 0.00 | 84 | 1012.3 |
| 20260903122905 | 79 | 193 | 6.0 | 12.0 | 0.00 | 0.00 | 0.00 | 84 | 1012.4 |
| 20260903122804 | 79 | 193 | 6.0 | 12.0 | 0.00 | 0.00 | 0.00 | 84 | 1012.3 |
| 20260903122604 | 79 | 193 | 6.0 | 12.0 | 0.00 | 0.00 | 0.00 | 84 | 1012.3 |
| 20260903122504 | 79 | 194 | 6.0 | 12.0 | 0.00 | 0.00 | 0.00 | 84 | 1012.3 |
| 20260903122404 | 79 | 196 | 6.0 | 12.0 | 0.00 | 0.00 | 0.00 | 84 | 1012.3 |
| 20260903122306 | 79 | 196 | 6.0 | 12.0 | 0.00 | 0.00 | 0.00 | 84 | 1012.3 |
| 20260903122204 | 79 | 195 | 6.0 | 12.0 | 0.00 | 0.00 | 0.00 | 84 | 1012.3 |
| 20260903122104 | 79 | 194 | 6.0 | 12.0 | 0.00 | 0.00 | 0.00 | 84 | 1012.3 |
| 20260903122004 | 79 | 195 | 6.0 | 12.0 | 0.00 | 0.00 | 0.00 | 84 | 1012.2 |
| 20260903121905 | 79 | 195 | 6.0 | 12.0 | 0.00 | 0.00 | 0.00 | 84 | 1012.2 |
| 20260903121704 | 79 | 195 | 6.0 | 12.0 | 0.00 | 0.00 | 0.00 | 84 | 1012.2 |
| 20260903121606 | 79 | 194 | 5.0 | 12.0 | 0.00 | 0.00 | 0.00 | 84 | 1012.2 |
| 20260903121405 | 79 | 192 | 5.0 | 12.0 | 0.00 | 0.00 | 0.00 | 84 | 1012.2 |
| 20260903121304 | 79 | 192 | 5.0 | 11.0 | 0.00 | 0.00 | 0.00 | 84 | 1012.2 |
| 20260903121105 | 79 | 192 | 5.0 | 11.0 | 0.00 | 0.00 | 0.00 | 84 | 1012.1 |
| 20260903121004 | 79 | 192 | 5.0 | 11.0 | 0.00 | 0.00 | 0.00 | 84 | 1012.2 |
| 20260903120905 | 79 | 192 | 5.0 | 9.0 | 0.00 | 0.00 | 0.00 | 84 | 1012.1 |
| 20260903120804 | 79 | 191 | 5.0 | 9.0 | 0.00 | 0.00 | 0.00 | 84 | 1012.1 |
| 20260903120705 | 79 | 192 | 5.0 | 9.0 | 0.00 | 0.00 | 0.00 | 84 | 1012.1 |
| 20260903120604 | 79 | 192 | 5.0 | 9.0 | 0.00 | 0.00 | 0.00 | 84 | 1012.1 |
| 20260903120505 | 79 | 193 | 5.0 | 9.0 | 0.00 | 0.00 | 0.00 | 84 | 1012.1 |
| 20260903120404 | 79 | 193 | 5.0 | 10.0 | 0.00 | 0.00 | 0.00 | 84 | 1012.1 |
| 20260903120305 | 79 | 194 | 6.0 | 10.0 | 0.00 | 0.00 | 0.00 | 84 | 1012.1 |
| 20260903120204 | 79 | 195 | 6.0 | 10.0 | 0.00 | 0.00 | 0.00 | 84 | 1012.0 |
| 20260903120104 | 79 | 194 | 6.0 | 10.0 | 0.00 | 0.00 | 0.00 | 84 | 1012.1 |
| 20260903120004 | 79 | 194 | 6.0 | 10.0 | 0.00 | 0.00 | 0.00 | 84 | 1012.1 |
| 20260903115906 | 79 | 195 | 6.0 | 10.0 | 0.00 | 0.00 | 0.00 | 84 | 1012.1 |
| 20260903115804 | 79 | 197 | 6.0 | 10.0 | 0.00 | 0.00 | 0.00 | 84 | 1012.1 |
| 20260903115705 | 79 | 197 | 6.0 | 10.0 | 0.00 | 0.00 | 0.00 | 84 | 1012.1 |
| 20260903115605 | 79 | 196 | 6.0 | 10.0 | 0.00 | 0.00 | 0.00 | 84 | 1012.1 |
| 20260903115505 | 79 | 195 | 6.0 | 10.0 | 0.00 | 0.00 | 0.00 | 84 | 1012.0 |
| 20260903115305 | 79 | 194 | 5.0 | 10.0 | 0.00 | 0.00 | 0.00 | 84 | 1012.0 |
| 20260903115104 | 79 | 193 | 5.0 | 10.0 | 0.00 | 0.00 | 0.00 | 84 | 1012.0 |
| 20260903115004 | 79 | 192 | 5.0 | 10.0 | 0.00 | 0.00 | 0.00 | 84 | 1012.1 |
| 20260903114904 | 79 | 189 | 5.0 | 10.0 | 0.00 | 0.00 | 0.00 | 84 | 1012.1 |
| 20260903114804 | 79 | 188 | 5.0 | 10.0 | 0.00 | 0.00 | 0.00 | 84 | 1012.1 |
| 20260903114705 | 79 | 187 | 5.0 | 10.0 | 0.00 | 0.00 | 0.00 | 84 | 1012.1 |
| 20260903114604 | 79 | 185 | 5.0 | 9.0 | 0.00 | 0.00 | 0.00 | 84 | 1012.1 |
| 20260903114505 | 79 | 185 | 5.0 | 9.0 | 0.00 | 0.00 | 0.00 | 84 | 1012.1 |
| 20260903114306 | 79 | 183 | 6.0 | 10.0 | 0.00 | 0.00 | 0.00 | 84 | 1012.1 |
| 20260903114204 | 79 | 183 | 5.0 | 10.0 | 0.00 | 0.00 | 0.00 | 84 | 1012.2 |
| 20260903114104 | 79 | 182 | 5.0 | 10.0 | 0.00 | 0.00 | 0.00 | 84 | 1012.1 |
| 20260903113904 | 79 | 182 | 6.0 | 10.0 | 0.00 | 0.00 | 0.00 | 84 | 1012.2 |
| 20260903113805 | 79 | 181 | 6.0 | 11.0 | 0.00 | 0.00 | 0.00 | 84 | 1012.2 |
| 20260903113704 | 79 | 178 | 6.0 | 11.0 | 0.00 | 0.00 | 0.00 | 84 | 1012.2 |
| 20260903113605 | 79 | 178 | 6.0 | 11.0 | 0.00 | 0.00 | 0.00 | 84 | 1012.2 |
| 20260903113504 | 79 | 178 | 6.0 | 11.0 | 0.00 | 0.00 | 0.00 | 84 | 1012.1 |
| 20260903113404 | 79 | 177 | 6.0 | 11.0 | 0.00 | 0.00 | 0.00 | 84 | 1012.1 |
| 20260903113304 | 79 | 176 | 6.0 | 11.0 | 0.00 | 0.00 | 0.00 | 84 | 1012.2 |
| 20260903113205 | 79 | 175 | 6.0 | 11.0 | 0.00 | 0.00 | 0.00 | 84 | 1012.2 |
| 20260903113104 | 79 | 175 | 6.0 | 11.0 | 0.00 | 0.00 | 0.00 | 84 | 1012.2 |
| 20260903113004 | 79 | 175 | 6.0 | 11.0 | 0.00 | 0.00 | 0.00 | 84 | 1012.1 |
| 20260903112704 | 79 | 175 | 6.0 | 10.0 | 0.00 | 0.00 | 0.00 | 85 | 1012.2 |
| 20260903112606 | 79 | 174 | 6.0 | 10.0 | 0.00 | 0.00 | 0.00 | 85 | 1012.1 |
| 20260903112404 | 78 | 172 | 6.0 | 10.0 | 0.00 | 0.00 | 0.00 | 85 | 1012.1 |
| 20260903112204 | 79 | 171 | 5.0 | 10.0 | 0.00 | 0.00 | 0.00 | 85 | 1012.2 |
| 20260903112004 | 78 | 168 | 5.0 | 10.0 | 0.00 | 0.00 | 0.00 | 85 | 1012.2 |
| 20260903111905 | 78 | 165 | 6.0 | 10.0 | 0.00 | 0.00 | 0.00 | 85 | 1012.2 |
| 20260903111804 | 78 | 164 | 5.0 | 10.0 | 0.00 | 0.00 | 0.00 | 85 | 1012.2 |
| 20260903111706 | 78 | 163 | 5.0 | 10.0 | 0.00 | 0.00 | 0.00 | 85 | 1012.2 |
| 20260903111604 | 78 | 161 | 5.0 | 10.0 | 0.00 | 0.00 | 0.00 | 85 | 1012.2 |
| 20260903111504 | 78 | 159 | 5.0 | 10.0 | 0.00 | 0.00 | 0.00 | 85 | 1012.1 |
| 20260903111404 | 78 | 159 | 5.0 | 10.0 | 0.00 | 0.00 | 0.00 | 85 | 1012.2 |
| 20260903111304 | 78 | 161 | 5.0 | 10.0 | 0.00 | 0.00 | 0.00 | 85 | 1012.2 |
| 20260903111204 | 78 | 161 | 5.0 | 10.0 | 0.00 | 0.00 | 0.00 | 85 | 1012.3 |
| 20260903111005 | 78 | 159 | 4.0 | 10.0 | 0.00 | 0.00 | 0.00 | 85 | 1012.3 |
| 20260903110904 | 78 | 160 | 4.0 | 10.0 | 0.00 | 0.00 | 0.00 | 85 | 1012.2 |
| 20260903110804 | 78 | 161 | 4.0 | 8.0 | 0.00 | 0.00 | 0.00 | 85 | 1012.2 |
| 20260903110604 | 78 | 162 | 4.0 | 8.0 | 0.00 | 0.00 | 0.00 | 85 | 1012.2 |
| 20260903110505 | 78 | 162 | 4.0 | 8.0 | 0.00 | 0.00 | 0.00 | 85 | 1012.2 |
| 20260903110404 | 78 | 160 | 4.0 | 8.0 | 0.00 | 0.00 | 0.00 | 85 | 1012.2 |
| 20260903110304 | 78 | 160 | 4.0 | 8.0 | 0.00 | 0.00 | 0.00 | 85 | 1012.2 |
| 20260903110205 | 78 | 159 | 4.0 | 8.0 | 0.00 | 0.00 | 0.00 | 85 | 1012.2 |
| 20260903110104 | 78 | 160 | 4.0 | 8.0 | 0.00 | 0.00 | 0.00 | 85 | 1012.2 |
| 20260903110004 | 78 | 159 | 4.0 | 8.0 | 0.00 | 0.00 | 0.00 | 85 | 1012.1 |
| 20260903105904 | 78 | 161 | 4.0 | 8.0 | 0.00 | 0.00 | 0.00 | 85 | 1012.1 |
| 20260903105704 | 78 | 160 | 5.0 | 10.0 | 0.00 | 0.00 | 0.00 | 85 | 1012.1 |
| 20260903105604 | 78 | 162 | 5.0 | 10.0 | 0.00 | 0.00 | 0.00 | 85 | 1012.1 |
| 20260903105404 | 78 | 166 | 5.0 | 10.0 | 0.00 | 0.00 | 0.00 | 85 | 1012.0 |
| 20260903105306 | 78 | 166 | 5.0 | 10.0 | 0.00 | 0.00 | 0.00 | 85 | 1011.9 |
| 20260903105204 | 78 | 166 | 6.0 | 10.0 | 0.00 | 0.00 | 0.00 | 85 | 1012.0 |
| 20260903105104 | 78 | 167 | 6.0 | 10.0 | 0.00 | 0.00 | 0.00 | 85 | 1012.0 |
| 20260903105004 | 78 | 167 | 6.0 | 10.0 | 0.00 | 0.00 | 0.00 | 85 | 1011.9 |
| 20260903104806 | 78 | 168 | 5.0 | 9.0 | 0.00 | 0.00 | 0.00 | 85 | 1011.9 |
| 20260903104704 | 78 | 169 | 5.0 | 9.0 | 0.00 | 0.00 | 0.00 | 85 | 1011.9 |
| 20260903104605 | 78 | 170 | 5.0 | 9.0 | 0.00 | 0.00 | 0.00 | 85 | 1011.9 |
| 20260903104504 | 78 | 169 | 5.0 | 9.0 | 0.00 | 0.00 | 0.00 | 85 | 1011.9 |
| 20260903104404 | 78 | 170 | 5.0 | 9.0 | 0.00 | 0.00 | 0.00 | 85 | 1011.9 |
| 20260903104304 | 78 | 171 | 5.0 | 9.0 | 0.00 | 0.00 | 0.00 | 85 | 1012.0 |
| 20260903104205 | 78 | 172 | 5.0 | 9.0 | 0.00 | 0.00 | 0.00 | 85 | 1011.9 |
| 20260903104104 | 78 | 172 | 5.0 | 9.0 | 0.00 | 0.00 | 0.00 | 85 | 1011.9 |
| 20260903104005 | 78 | 172 | 5.0 | 9.0 | 0.00 | 0.00 | 0.00 | 85 | 1011.9 |
| 20260903103904 | 78 | 171 | 5.0 | 9.0 | 0.00 | 0.00 | 0.00 | 85 | 1011.9 |
| 20260903103805 | 78 | 171 | 5.0 | 9.0 | 0.00 | 0.00 | 0.00 | 85 | 1011.9 |
| 20260903103704 | 78 | 171 | 5.0 | 9.0 | 0.00 | 0.00 | 0.00 | 85 | 1011.9 |
| 20260903103504 | 78 | 169 | 4.0 | 9.0 | 0.00 | 0.00 | 0.00 | 84 | 1011.8 |
| 20260903103405 | 78 | 168 | 4.0 | 8.0 | 0.00 | 0.00 | 0.00 | 84 | 1011.8 |
| 20260903103304 | 78 | 168 | 4.0 | 8.0 | 0.00 | 0.00 | 0.00 | 84 | 1011.8 |
| 20260903103104 | 78 | 165 | 4.0 | 8.0 | 0.00 | 0.00 | 0.00 | 84 | 1011.8 |
| 20260903103005 | 78 | 165 | 4.0 | 8.0 | 0.00 | 0.00 | 0.00 | 84 | 1011.8 |
| 20260903102904 | 78 | 163 | 4.0 | 8.0 | 0.00 | 0.00 | 0.00 | 84 | 1011.8 |
| 20260903102804 | 78 | 164 | 4.0 | 9.0 | 0.00 | 0.00 | 0.00 | 84 | 1011.8 |
| 20260903102705 | 78 | 163 | 4.0 | 9.0 | 0.00 | 0.00 | 0.00 | 84 | 1011.8 |
| 20260903102604 | 78 | 163 | 4.0 | 9.0 | 0.00 | 0.00 | 0.00 | 84 | 1011.8 |
| 20260903102504 | 78 | 162 | 4.0 | 9.0 | 0.00 | 0.00 | 0.00 | 84 | 1011.8 |
| 20260903102405 | 78 | 163 | 4.0 | 9.0 | 0.00 | 0.00 | 0.00 | 84 | 1011.8 |
| 20260903102306 | 78 | 161 | 4.0 | 9.0 | 0.00 | 0.00 | 0.00 | 84 | 1011.8 |
| 20260903102204 | 78 | 160 | 4.0 | 9.0 | 0.00 | 0.00 | 0.00 | 84 | 1011.8 |
| 20260903102104 | 78 | 160 | 4.0 | 9.0 | 0.00 | 0.00 | 0.00 | 84 | 1011.9 |
| 20260903102005 | 78 | 160 | 4.0 | 9.0 | 0.00 | 0.00 | 0.00 | 84 | 1011.8 |
| 20260903101804 | 78 | 161 | 4.0 | 9.0 | 0.00 | 0.00 | 0.00 | 84 | 1011.8 |
| 20260903101704 | 78 | 162 | 4.0 | 9.0 | 0.00 | 0.00 | 0.00 | 84 | 1011.8 |
| 20260903101504 | 78 | 165 | 5.0 | 10.0 | 0.00 | 0.00 | 0.00 | 84 | 1011.8 |
| 20260903101404 | 78 | 166 | 5.0 | 10.0 | 0.00 | 0.00 | 0.00 | 84 | 1011.8 |
| 20260903101304 | 78 | 167 | 5.0 | 10.0 | 0.00 | 0.00 | 0.00 | 84 | 1011.8 |
| 20260903101204 | 78 | 169 | 5.0 | 10.0 | 0.00 | 0.00 | 0.00 | 84 | 1011.7 |
| 20260903101003 | 78 | 172 | 4.0 | 10.0 | 0.00 | 0.00 | 0.00 | 84 | 1011.7 |
| 20260903100904 | 78 | 172 | 4.0 | 10.0 | 0.00 | 0.00 | 0.00 | 84 | 1011.7 |
| 20260903100804 | 78 | 173 | 5.0 | 10.0 | 0.00 | 0.00 | 0.00 | 84 | 1011.7 |
| 20260903100704 | 78 | 174 | 4.0 | 10.0 | 0.00 | 0.00 | 0.00 | 84 | 1011.7 |
| 20260903100604 | 78 | 175 | 4.0 | 10.0 | 0.00 | 0.00 | 0.00 | 84 | 1011.6 |
| 20260903100404 | 78 | 175 | 4.0 | 8.0 | 0.00 | 0.00 | 0.00 | 83 | 1011.7 |
| 20260903100304 | 78 | 177 | 4.0 | 9.0 | 0.00 | 0.00 | 0.00 | 83 | 1011.7 |
| 20260903100205 | 78 | 178 | 4.0 | 9.0 | 0.00 | 0.00 | 0.00 | 83 | 1011.7 |
| 20260903100105 | 78 | 178 | 4.0 | 9.0 | 0.00 | 0.00 | 0.00 | 83 | 1011.6 |
| 20260903100004 | 78 | 179 | 4.0 | 9.0 | 0.00 | 0.00 | 0.00 | 83 | 1011.6 |
| 20260903095904 | 78 | 183 | 4.0 | 9.0 | 0.00 | 0.00 | 0.00 | 83 | 1011.6 |
| 20260903095804 | 78 | 183 | 4.0 | 9.0 | 0.00 | 0.00 | 0.00 | 83 | 1011.6 |
| 20260903095504 | 78 | 185 | 4.0 | 9.0 | 0.00 | 0.00 | 0.00 | 83 | 1011.6 |
| 20260903095404 | 78 | 186 | 4.0 | 9.0 | 0.00 | 0.00 | 0.00 | 83 | 1011.7 |
| 20260903095306 | 78 | 185 | 4.0 | 9.0 | 0.00 | 0.00 | 0.00 | 83 | 1011.6 |
| 20260903095204 | 78 | 185 | 4.0 | 9.0 | 0.00 | 0.00 | 0.00 | 83 | 1011.6 |
| 20260903095105 | 78 | 184 | 4.0 | 9.0 | 0.00 | 0.00 | 0.00 | 83 | 1011.6 |
| 20260903095004 | 78 | 182 | 4.0 | 9.0 | 0.00 | 0.00 | 0.00 | 83 | 1011.6 |
| 20260903094904 | 78 | 181 | 4.0 | 9.0 | 0.00 | 0.00 | 0.00 | 83 | 1011.6 |
| 20260903094804 | 78 | 179 | 4.0 | 9.0 | 0.00 | 0.00 | 0.00 | 83 | 1011.6 |
| 20260903094705 | 78 | 179 | 4.0 | 9.0 | 0.00 | 0.00 | 0.00 | 83 | 1011.6 |
| 20260903094505 | 78 | 179 | 3.0 | 9.0 | 0.00 | 0.00 | 0.00 | 83 | 1011.6 |
| 20260903094404 | 78 | 181 | 3.0 | 7.0 | 0.00 | 0.00 | 0.00 | 83 | 1011.6 |
| 20260903094305 | 78 | 179 | 3.0 | 6.0 | 0.00 | 0.00 | 0.00 | 83 | 1011.6 |
| 20260903094204 | 78 | 181 | 3.0 | 6.0 | 0.00 | 0.00 | 0.00 | 83 | 1011.6 |
| 20260903094104 | 78 | 182 | 3.0 | 6.0 | 0.00 | 0.00 | 0.00 | 83 | 1011.6 |
| 20260903093905 | 78 | 185 | 3.0 | 6.0 | 0.00 | 0.00 | 0.00 | 83 | 1011.6 |
| 20260903093804 | 78 | 186 | 3.0 | 6.0 | 0.00 | 0.00 | 0.00 | 83 | 1011.6 |
| 20260903093704 | 78 | 186 | 3.0 | 6.0 | 0.00 | 0.00 | 0.00 | 83 | 1011.6 |
| 20260903093604 | 78 | 184 | 3.0 | 6.0 | 0.00 | 0.00 | 0.00 | 83 | 1011.6 |
| 20260903093505 | 78 | 183 | 3.0 | 6.0 | 0.00 | 0.00 | 0.00 | 83 | 1011.6 |
| 20260903093404 | 78 | 182 | 3.0 | 6.0 | 0.00 | 0.00 | 0.00 | 83 | 1011.6 |
| 20260903093304 | 78 | 182 | 3.0 | 6.0 | 0.00 | 0.00 | 0.00 | 83 | 1011.7 |
| 20260903093205 | 78 | 182 | 3.0 | 6.0 | 0.00 | 0.00 | 0.00 | 83 | 1011.6 |
| 20260903093104 | 78 | 181 | 3.0 | 6.0 | 0.00 | 0.00 | 0.00 | 83 | 1011.6 |
| 20260903093005 | 78 | 182 | 3.0 | 6.0 | 0.00 | 0.00 | 0.00 | 83 | 1011.7 |
| 20260903092905 | 78 | 181 | 3.0 | 7.0 | 0.00 | 0.00 | 0.00 | 83 | 1011.7 |
| 20260903092804 | 78 | 181 | 3.0 | 7.0 | 0.00 | 0.00 | 0.00 | 83 | 1011.7 |
| 20260903092704 | 78 | 179 | 3.0 | 7.0 | 0.00 | 0.00 | 0.00 | 83 | 1011.7 |
| 20260903092604 | 78 | 181 | 3.0 | 7.0 | 0.00 | 0.00 | 0.00 | 83 | 1011.6 |
| 20260903092504 | 78 | 182 | 3.0 | 7.0 | 0.00 | 0.00 | 0.00 | 83 | 1011.7 |
| 20260903092306 | 78 | 184 | 3.0 | 7.0 | 0.00 | 0.00 | 0.00 | 83 | 1011.6 |
| 20260903092204 | 78 | 184 | 3.0 | 7.0 | 0.00 | 0.00 | 0.00 | 83 | 1011.6 |
| 20260903092104 | 78 | 186 | 3.0 | 7.0 | 0.00 | 0.00 | 0.00 | 83 | 1011.7 |
| 20260903092004 | 78 | 187 | 3.0 | 7.0 | 0.00 | 0.00 | 0.00 | 82 | 1011.7 |
| 20260903091904 | 78 | 188 | 3.0 | 7.0 | 0.00 | 0.00 | 0.00 | 82 | 1011.7 |
| 20260903091804 | 78 | 188 | 3.0 | 7.0 | 0.00 | 0.00 | 0.00 | 82 | 1011.6 |
| 20260903091704 | 78 | 191 | 3.0 | 7.0 | 0.00 | 0.00 | 0.00 | 82 | 1011.6 |
| 20260903091604 | 78 | 192 | 3.0 | 7.0 | 0.00 | 0.00 | 0.00 | 82 | 1011.7 |
| 20260903091504 | 78 | 194 | 4.0 | 7.0 | 0.00 | 0.00 | 0.00 | 82 | 1011.7 |
| 20260903091305 | 78 | 195 | 4.0 | 7.0 | 0.00 | 0.00 | 0.00 | 82 | 1011.7 |
| 20260903091204 | 78 | 194 | 4.0 | 7.0 | 0.00 | 0.00 | 0.00 | 82 | 1011.7 |
| 20260903091104 | 78 | 194 | 4.0 | 7.0 | 0.00 | 0.00 | 0.00 | 82 | 1011.7 |
| 20260903090904 | 78 | 193 | 4.0 | 7.0 | 0.00 | 0.00 | 0.00 | 82 | 1011.8 |
| 20260903090804 | 78 | 192 | 4.0 | 7.0 | 0.00 | 0.00 | 0.00 | 82 | 1011.8 |
| 20260903090704 | 78 | 191 | 4.0 | 7.0 | 0.00 | 0.00 | 0.00 | 82 | 1011.8 |
| 20260903090504 | 78 | 189 | 4.0 | 7.0 | 0.00 | 0.00 | 0.00 | 82 | 1011.8 |
| 20260903090404 | 78 | 188 | 3.0 | 7.0 | 0.00 | 0.00 | 0.00 | 82 | 1011.8 |
| 20260903090304 | 78 | 185 | 3.0 | 7.0 | 0.00 | 0.00 | 0.00 | 82 | 1011.8 |
| 20260903090205 | 78 | 186 | 3.0 | 7.0 | 0.00 | 0.00 | 0.00 | 82 | 1011.8 |
| 20260903090104 | 78 | 183 | 3.0 | 8.0 | 0.00 | 0.00 | 0.00 | 82 | 1011.9 |
| 20260903090005 | 78 | 181 | 3.0 | 8.0 | 0.00 | 0.00 | 0.00 | 82 | 1011.9 |
| 20260903085904 | 78 | 177 | 3.0 | 8.0 | 0.00 | 0.00 | 0.00 | 82 | 1011.9 |
| 20260903085805 | 78 | 177 | 3.0 | 8.0 | 0.00 | 0.00 | 0.00 | 82 | 1011.9 |
| 20260903085705 | 78 | 175 | 3.0 | 8.0 | 0.00 | 0.00 | 0.00 | 82 | 1011.9 |
| 20260903085604 | 78 | 173 | 3.0 | 8.0 | 0.00 | 0.00 | 0.00 | 82 | 1012.0 |
| 20260903085504 | 78 | 172 | 4.0 | 8.0 | 0.00 | 0.00 | 0.00 | 82 | 1012.0 |
| 20260903085404 | 78 | 170 | 4.0 | 8.0 | 0.00 | 0.00 | 0.00 | 82 | 1011.9 |
| 20260903085204 | 78 | 167 | 4.0 | 8.0 | 0.00 | 0.00 | 0.00 | 82 | 1012.0 |
| 20260903085104 | 78 | 166 | 4.0 | 7.0 | 0.00 | 0.00 | 0.00 | 82 | 1012.0 |
| 20260903085004 | 78 | 166 | 4.0 | 8.0 | 0.00 | 0.00 | 0.00 | 82 | 1011.9 |
| 20260903084903 | 78 | 166 | 4.0 | 8.0 | 0.00 | 0.00 | 0.00 | 82 | 1012.0 |
| 20260903084804 | 78 | 165 | 4.0 | 8.0 | 0.00 | 0.00 | 0.00 | 82 | 1012.0 |
| 20260903084703 | 78 | 165 | 4.0 | 8.0 | 0.00 | 0.00 | 0.00 | 82 | 1012.0 |
| 20260903084505 | 78 | 165 | 4.0 | 8.0 | 0.00 | 0.00 | 0.00 | 83 | 1012.0 |
| 20260903084404 | 78 | 165 | 4.0 | 8.0 | 0.00 | 0.00 | 0.00 | 83 | 1012.1 |
| 20260903084304 | 77 | 164 | 4.0 | 8.0 | 0.00 | 0.00 | 0.00 | 83 | 1012.0 |
| 20260903084205 | 77 | 164 | 4.0 | 8.0 | 0.00 | 0.00 | 0.00 | 83 | 1012.0 |
| 20260903084104 | 77 | 163 | 4.0 | 8.0 | 0.00 | 0.00 | 0.00 | 83 | 1012.0 |
| 20260903084004 | 77 | 162 | 4.0 | 7.0 | 0.00 | 0.00 | 0.00 | 83 | 1012.0 |
| 20260903083804 | 77 | 160 | 3.0 | 7.0 | 0.00 | 0.00 | 0.00 | 83 | 1012.0 |
| 20260903083704 | 77 | 159 | 3.0 | 6.0 | 0.00 | 0.00 | 0.00 | 83 | 1012.0 |
| 20260903083604 | 77 | 156 | 3.0 | 6.0 | 0.00 | 0.00 | 0.00 | 83 | 1012.0 |
| 20260903083504 | 77 | 156 | 3.0 | 7.0 | 0.00 | 0.00 | 0.00 | 83 | 1012.0 |
| 20260903083404 | 77 | 156 | 3.0 | 7.0 | 0.00 | 0.00 | 0.00 | 83 | 1012.0 |
| 20260903083304 | 77 | 158 | 3.0 | 7.0 | 0.00 | 0.00 | 0.00 | 83 | 1012.0 |
| 20260903083205 | 77 | 159 | 3.0 | 7.0 | 0.00 | 0.00 | 0.00 | 83 | 1012.0 |
| 20260903083104 | 77 | 160 | 3.0 | 7.0 | 0.00 | 0.00 | 0.00 | 83 | 1012.0 |
| 20260903083004 | 77 | 160 | 3.0 | 7.0 | 0.00 | 0.00 | 0.00 | 83 | 1012.0 |
| 20260903082904 | 77 | 160 | 3.0 | 7.0 | 0.00 | 0.00 | 0.00 | 83 | 1012.0 |
| 20260903082704 | 77 | 161 | 3.0 | 7.0 | 0.00 | 0.00 | 0.00 | 83 | 1012.0 |
| 20260903082605 | 77 | 161 | 3.0 | 7.0 | 0.00 | 0.00 | 0.00 | 83 | 1012.0 |
| 20260903082504 | 77 | 162 | 3.0 | 7.0 | 0.00 | 0.00 | 0.00 | 83 | 1011.9 |
| 20260903082403 | 77 | 162 | 3.0 | 6.0 | 0.00 | 0.00 | 0.00 | 84 | 1012.0 |
| 20260903082306 | 77 | 160 | 3.0 | 6.0 | 0.00 | 0.00 | 0.00 | 84 | 1012.0 |
| 20260903082204 | 77 | 158 | 3.0 | 6.0 | 0.00 | 0.00 | 0.00 | 84 | 1011.9 |
| 20260903082104 | 77 | 158 | 3.0 | 6.0 | 0.00 | 0.00 | 0.00 | 84 | 1011.9 |
| 20260903082004 | 77 | 157 | 3.0 | 6.0 | 0.00 | 0.00 | 0.00 | 84 | 1011.9 |
| 20260903081904 | 77 | 156 | 3.0 | 4.0 | 0.00 | 0.00 | 0.00 | 84 | 1011.9 |
| 20260903081804 | 77 | 155 | 2.0 | 4.0 | 0.00 | 0.00 | 0.00 | 84 | 1011.9 |
| 20260903081703 | 77 | 153 | 3.0 | 5.0 | 0.00 | 0.00 | 0.00 | 83 | 1011.9 |
| 20260903081604 | 77 | 152 | 3.0 | 5.0 | 0.00 | 0.00 | 0.00 | 83 | 1012.0 |
| 20260903081503 | 77 | 151 | 2.0 | 5.0 | 0.00 | 0.00 | 0.00 | 83 | 1012.0 |
| 20260903081404 | 77 | 149 | 2.0 | 5.0 | 0.00 | 0.00 | 0.00 | 83 | 1012.0 |
| 20260903081304 | 77 | 150 | 2.0 | 5.0 | 0.00 | 0.00 | 0.00 | 83 | 1012.0 |
| 20260903081104 | 77 | 147 | 2.0 | 5.0 | 0.00 | 0.00 | 0.00 | 83 | 1012.1 |
| 20260903081005 | 77 | 148 | 2.0 | 5.0 | 0.00 | 0.00 | 0.00 | 83 | 1012.1 |
| 20260903080904 | 77 | 147 | 2.0 | 5.0 | 0.00 | 0.00 | 0.00 | 83 | 1012.1 |
| 20260903080804 | 77 | 148 | 2.0 | 5.0 | 0.00 | 0.00 | 0.00 | 83 | 1012.1 |
| 20260903080704 | 77 | 150 | 2.0 | 4.0 | 0.00 | 0.00 | 0.00 | 83 | 1012.1 |
| 20260903080504 | 77 | 153 | 2.0 | 5.0 | 0.00 | 0.00 | 0.00 | 83 | 1012.1 |
| 20260903080303 | 77 | 157 | 2.0 | 5.0 | 0.00 | 0.00 | 0.00 | 83 | 1012.1 |
| 20260903080104 | 77 | 160 | 3.0 | 6.0 | 0.00 | 0.00 | 0.00 | 83 | 1012.2 |
| 20260903080004 | 77 | 160 | 3.0 | 6.0 | 0.00 | 0.00 | 0.00 | 83 | 1012.2 |
| 20260903075904 | 77 | 162 | 3.0 | 6.0 | 0.00 | 0.00 | 0.00 | 83 | 1012.2 |
| 20260903075804 | 77 | 163 | 3.0 | 6.0 | 0.00 | 0.00 | 0.00 | 83 | 1012.2 |
| 20260903075704 | 77 | 164 | 3.0 | 6.0 | 0.00 | 0.00 | 0.00 | 83 | 1012.2 |
| 20260903075604 | 77 | 163 | 3.0 | 6.0 | 0.00 | 0.00 | 0.00 | 83 | 1012.2 |
| 20260903075504 | 77 | 161 | 3.0 | 6.0 | 0.00 | 0.00 | 0.00 | 83 | 1012.1 |
| 20260903075404 | 77 | 160 | 3.0 | 6.0 | 0.00 | 0.00 | 0.00 | 83 | 1012.2 |
| 20260903075306 | 77 | 158 | 3.0 | 6.0 | 0.00 | 0.00 | 0.00 | 83 | 1012.2 |
| 20260903075204 | 77 | 156 | 2.0 | 5.0 | 0.00 | 0.00 | 0.00 | 83 | 1012.2 |
| 20260903075104 | 77 | 155 | 2.0 | 5.0 | 0.00 | 0.00 | 0.00 | 83 | 1012.2 |
| 20260903075004 | 78 | 154 | 2.0 | 5.0 | 0.00 | 0.00 | 0.00 | 83 | 1012.2 |
| 20260903074903 | 77 | 151 | 2.0 | 6.0 | 0.00 | 0.00 | 0.00 | 83 | 1012.2 |
| 20260903074804 | 78 | 148 | 2.0 | 6.0 | 0.00 | 0.00 | 0.00 | 83 | 1012.1 |
| 20260903074704 | 78 | 146 | 2.0 | 6.0 | 0.00 | 0.00 | 0.00 | 83 | 1012.1 |
| 20260903074504 | 78 | 148 | 2.0 | 6.0 | 0.00 | 0.00 | 0.00 | 83 | 1012.2 |
| 20260903074403 | 78 | 148 | 2.0 | 6.0 | 0.00 | 0.00 | 0.00 | 83 | 1012.2 |
| 20260903074207 | 78 | 148 | 2.0 | 6.0 | 0.00 | 0.00 | 0.00 | 83 | 1012.1 |
| 20260903074104 | 78 | 150 | 2.0 | 6.0 | 0.00 | 0.00 | 0.00 | 83 | 1012.1 |
| 20260903074004 | 78 | 151 | 2.0 | 6.0 | 0.00 | 0.00 | 0.00 | 82 | 1012.1 |
| 20260903073904 | 78 | 152 | 2.0 | 6.0 | 0.00 | 0.00 | 0.00 | 82 | 1012.1 |
| 20260903073804 | 78 | 156 | 2.0 | 6.0 | 0.00 | 0.00 | 0.00 | 82 | 1012.2 |
| 20260903073604 | 78 | 161 | 2.0 | 6.0 | 0.00 | 0.00 | 0.00 | 82 | 1012.2 |
| 20260903073505 | 78 | 164 | 3.0 | 9.0 | 0.00 | 0.00 | 0.00 | 82 | 1012.2 |
| 20260903073404 | 78 | 166 | 3.0 | 9.0 | 0.00 | 0.00 | 0.00 | 82 | 1012.1 |
| 20260903073304 | 78 | 167 | 4.0 | 9.0 | 0.00 | 0.00 | 0.00 | 82 | 1012.1 |
| 20260903073204 | 78 | 169 | 4.0 | 9.0 | 0.00 | 0.00 | 0.00 | 82 | 1012.1 |
| 20260903073104 | 78 | 168 | 4.0 | 9.0 | 0.00 | 0.00 | 0.00 | 82 | 1012.1 |
| 20260903073005 | 78 | 169 | 4.0 | 9.0 | 0.00 | 0.00 | 0.00 | 82 | 1012.1 |
| 20260903072804 | 78 | 168 | 5.0 | 9.0 | 0.00 | 0.00 | 0.00 | 82 | 1012.1 |
| 20260903072704 | 78 | 168 | 5.0 | 9.0 | 0.00 | 0.00 | 0.00 | 82 | 1012.2 |
| 20260903072404 | 78 | 167 | 5.0 | 8.0 | 0.00 | 0.00 | 0.00 | 82 | 1012.1 |
| 20260903072306 | 78 | 167 | 5.0 | 8.0 | 0.00 | 0.00 | 0.00 | 82 | 1012.1 |
| 20260903072204 | 78 | 166 | 5.0 | 8.0 | 0.00 | 0.00 | 0.00 | 82 | 1012.1 |
| 20260903072104 | 78 | 165 | 5.0 | 8.0 | 0.00 | 0.00 | 0.00 | 82 | 1012.1 |
| 20260903072004 | 78 | 163 | 5.0 | 8.0 | 0.00 | 0.00 | 0.00 | 82 | 1012.1 |
| 20260903071904 | 78 | 163 | 5.0 | 8.0 | 0.00 | 0.00 | 0.00 | 82 | 1012.1 |
| 20260903071804 | 78 | 162 | 4.0 | 8.0 | 0.00 | 0.00 | 0.00 | 82 | 1012.1 |
| 20260903071704 | 78 | 161 | 4.0 | 8.0 | 0.00 | 0.00 | 0.00 | 82 | 1012.2 |
| 20260903071604 | 78 | 161 | 4.0 | 8.0 | 0.00 | 0.00 | 0.00 | 82 | 1012.2 |
| 20260903071504 | 78 | 160 | 4.0 | 8.0 | 0.00 | 0.00 | 0.00 | 82 | 1012.2 |
| 20260903071404 | 78 | 159 | 4.0 | 8.0 | 0.00 | 0.00 | 0.00 | 82 | 1012.2 |
| 20260903071303 | 78 | 160 | 4.0 | 8.0 | 0.00 | 0.00 | 0.00 | 82 | 1012.2 |
| 20260903071204 | 78 | 159 | 4.0 | 8.0 | 0.00 | 0.00 | 0.00 | 82 | 1012.2 |
| 20260903071103 | 78 | 160 | 4.0 | 8.0 | 0.00 | 0.00 | 0.00 | 81 | 1012.2 |
| 20260903071004 | 78 | 160 | 3.0 | 8.0 | 0.00 | 0.00 | 0.00 | 81 | 1012.3 |
| 20260903070903 | 78 | 160 | 3.0 | 8.0 | 0.00 | 0.00 | 0.00 | 81 | 1012.2 |
| 20260903070804 | 78 | 161 | 4.0 | 8.0 | 0.00 | 0.00 | 0.00 | 81 | 1012.3 |
| 20260903070703 | 78 | 160 | 4.0 | 8.0 | 0.00 | 0.00 | 0.00 | 81 | 1012.3 |
| 20260903070604 | 78 | 160 | 4.0 | 8.0 | 0.00 | 0.00 | 0.00 | 81 | 1012.3 |
| 20260903070503 | 78 | 159 | 4.0 | 8.0 | 0.00 | 0.00 | 0.00 | 81 | 1012.3 |
| 20260903070404 | 78 | 158 | 4.0 | 8.0 | 0.00 | 0.00 | 0.00 | 81 | 1012.3 |
| 20260903070303 | 78 | 155 | 4.0 | 8.0 | 0.00 | 0.00 | 0.00 | 81 | 1012.3 |
| 20260903070204 | 78 | 156 | 4.0 | 8.0 | 0.00 | 0.00 | 0.00 | 81 | 1012.3 |
| 20260903070103 | 78 | 155 | 4.0 | 8.0 | 0.00 | 0.00 | 0.00 | 81 | 1012.3 |
| 20260903070004 | 78 | 154 | 4.0 | 8.0 | 0.00 | 0.00 | 0.00 | 81 | 1012.3 |
| 20260903065904 | 78 | 153 | 4.0 | 8.0 | 0.00 | 0.00 | 0.00 | 81 | 1012.3 |
| 20260903065805 | 78 | 151 | 4.0 | 8.0 | 0.00 | 0.00 | 0.00 | 81 | 1012.3 |
| 20260903065704 | 78 | 152 | 4.0 | 9.0 | 0.00 | 0.00 | 0.00 | 81 | 1012.4 |
| 20260903065604 | 78 | 149 | 4.0 | 9.0 | 0.00 | 0.00 | 0.00 | 81 | 1012.4 |
| 20260903065504 | 78 | 149 | 4.0 | 9.0 | 0.00 | 0.00 | 0.00 | 81 | 1012.4 |
| 20260903065404 | 78 | 149 | 4.0 | 9.0 | 0.00 | 0.00 | 0.00 | 80 | 1012.4 |
| 20260903065306 | 78 | 151 | 4.0 | 9.0 | 0.00 | 0.00 | 0.00 | 80 | 1012.4 |
| 20260903065204 | 78 | 150 | 4.0 | 9.0 | 0.00 | 0.00 | 0.00 | 80 | 1012.4 |
| 20260903065004 | 78 | 151 | 4.0 | 9.0 | 0.00 | 0.00 | 0.00 | 80 | 1012.5 |
| 20260903064903 | 78 | 152 | 4.0 | 9.0 | 0.00 | 0.00 | 0.00 | 80 | 1012.5 |
| 20260903064704 | 78 | 153 | 4.0 | 9.0 | 0.00 | 0.00 | 0.00 | 80 | 1012.5 |
| 20260903064604 | 78 | 153 | 4.0 | 9.0 | 0.00 | 0.00 | 0.00 | 80 | 1012.5 |
| 20260903064504 | 78 | 153 | 4.0 | 9.0 | 0.00 | 0.00 | 0.00 | 80 | 1012.5 |
| 20260903064404 | 78 | 152 | 4.0 | 9.0 | 0.00 | 0.00 | 0.00 | 80 | 1012.5 |
| 20260903064304 | 78 | 152 | 4.0 | 9.0 | 0.00 | 0.00 | 0.00 | 80 | 1012.5 |
| 20260903064204 | 78 | 151 | 4.0 | 9.0 | 0.00 | 0.00 | 0.00 | 80 | 1012.5 |
| 20260903064104 | 79 | 151 | 4.0 | 9.0 | 0.00 | 0.00 | 0.00 | 80 | 1012.5 |
| 20260903064005 | 79 | 150 | 4.0 | 9.0 | 0.00 | 0.00 | 0.00 | 79 | 1012.5 |
| 20260903063904 | 79 | 149 | 4.0 | 9.0 | 0.00 | 0.00 | 0.00 | 79 | 1012.5 |
| 20260903063804 | 78 | 149 | 4.0 | 9.0 | 0.00 | 0.00 | 0.00 | 79 | 1012.6 |
| 20260903063704 | 79 | 149 | 4.0 | 9.0 | 0.00 | 0.00 | 0.00 | 79 | 1012.6 |
| 20260903063604 | 79 | 149 | 4.0 | 9.0 | 0.00 | 0.00 | 0.00 | 79 | 1012.5 |
| 20260903063504 | 79 | 149 | 4.0 | 9.0 | 0.00 | 0.00 | 0.00 | 79 | 1012.6 |
| 20260903063404 | 79 | 148 | 4.0 | 9.0 | 0.00 | 0.00 | 0.00 | 79 | 1012.6 |
| 20260903063204 | 79 | 148 | 4.0 | 9.0 | 0.00 | 0.00 | 0.00 | 79 | 1012.6 |
| 20260903063103 | 79 | 148 | 4.0 | 9.0 | 0.00 | 0.00 | 0.00 | 79 | 1012.6 |
| 20260903063004 | 79 | 148 | 4.0 | 10.0 | 0.00 | 0.00 | 0.00 | 78 | 1012.5 |
| 20260903062903 | 79 | 148 | 5.0 | 10.0 | 0.00 | 0.00 | 0.00 | 78 | 1012.6 |
| 20260903062804 | 79 | 148 | 5.0 | 10.0 | 0.00 | 0.00 | 0.00 | 78 | 1012.6 |
| 20260903062703 | 79 | 146 | 5.0 | 11.0 | 0.00 | 0.00 | 0.00 | 78 | 1012.7 |
| 20260903062604 | 79 | 146 | 5.0 | 11.0 | 0.00 | 0.00 | 0.00 | 78 | 1012.6 |
| 20260903062504 | 79 | 146 | 5.0 | 11.0 | 0.00 | 0.00 | 0.00 | 78 | 1012.7 |
| 20260903062306 | 79 | 145 | 5.0 | 11.0 | 0.00 | 0.00 | 0.00 | 78 | 1012.7 |
| 20260903062104 | 79 | 146 | 5.0 | 11.0 | 0.00 | 0.00 | 0.00 | 78 | 1012.7 |
| 20260903062004 | 79 | 145 | 5.0 | 11.0 | 0.00 | 0.00 | 0.00 | 78 | 1012.7 |
| 20260903061903 | 79 | 145 | 5.0 | 11.0 | 0.00 | 0.00 | 0.00 | 78 | 1012.7 |
| 20260903061804 | 79 | 143 | 5.0 | 11.0 | 0.00 | 0.00 | 0.00 | 77 | 1012.6 |
| 20260903061703 | 79 | 143 | 4.0 | 10.0 | 0.00 | 0.00 | 0.00 | 77 | 1012.6 |
| 20260903061604 | 79 | 143 | 4.0 | 10.0 | 0.00 | 0.00 | 0.00 | 77 | 1012.7 |
| 20260903061404 | 79 | 142 | 4.0 | 10.0 | 0.00 | 0.00 | 0.00 | 77 | 1012.7 |
| 20260903061303 | 79 | 141 | 4.0 | 10.0 | 0.00 | 0.00 | 0.00 | 77 | 1012.7 |
| 20260903061004 | 79 | 137 | 3.0 | 10.0 | 0.00 | 0.00 | 0.00 | 77 | 1012.6 |
| 20260903060904 | 79 | 136 | 4.0 | 10.0 | 0.00 | 0.00 | 0.00 | 77 | 1012.7 |
| 20260903060804 | 79 | 135 | 3.0 | 7.0 | 0.00 | 0.00 | 0.00 | 77 | 1012.7 |
| 20260903060704 | 79 | 134 | 3.0 | 7.0 | 0.00 | 0.00 | 0.00 | 77 | 1012.7 |
| 20260903060603 | 79 | 131 | 3.0 | 7.0 | 0.00 | 0.00 | 0.00 | 77 | 1012.7 |
| 20260903060504 | 79 | 129 | 3.0 | 7.0 | 0.00 | 0.00 | 0.00 | 77 | 1012.6 |
| 20260903060305 | 79 | 128 | 3.0 | 7.0 | 0.00 | 0.00 | 0.00 | 77 | 1012.7 |
| 20260903060204 | 79 | 127 | 3.0 | 7.0 | 0.00 | 0.00 | 0.00 | 77 | 1012.7 |
| 20260903060103 | 79 | 125 | 3.0 | 7.0 | 0.00 | 0.00 | 0.00 | 77 | 1012.7 |
| 20260903055903 | 79 | 122 | 3.0 | 5.0 | 0.00 | 0.00 | 0.00 | 77 | 1012.7 |
| 20260903055805 | 79 | 121 | 3.0 | 5.0 | 0.00 | 0.00 | 0.00 | 77 | 1012.7 |
| 20260903055703 | 79 | 120 | 3.0 | 5.0 | 0.00 | 0.00 | 0.00 | 77 | 1012.8 |
| 20260903055604 | 79 | 120 | 3.0 | 5.0 | 0.00 | 0.00 | 0.00 | 77 | 1012.7 |
| 20260903055404 | 79 | 119 | 3.0 | 5.0 | 0.00 | 0.00 | 0.00 | 77 | 1012.7 |
| 20260903055204 | 79 | 116 | 3.0 | 5.0 | 0.00 | 0.00 | 0.00 | 77 | 1012.7 |
| 20260903055104 | 79 | 116 | 3.0 | 5.0 | 0.00 | 0.00 | 0.00 | 77 | 1012.7 |
| 20260903055004 | 79 | 116 | 3.0 | 6.0 | 0.00 | 0.00 | 0.00 | 77 | 1012.7 |
| 20260903054903 | 79 | 117 | 3.0 | 8.0 | 0.00 | 0.00 | 0.00 | 77 | 1012.7 |
| 20260903054804 | 79 | 117 | 3.0 | 8.0 | 0.00 | 0.00 | 0.00 | 77 | 1012.7 |
| 20260903054704 | 79 | 118 | 3.0 | 8.0 | 0.00 | 0.00 | 0.00 | 76 | 1012.7 |
| 20260903054603 | 80 | 118 | 3.0 | 8.0 | 0.00 | 0.00 | 0.00 | 76 | 1012.7 |
| 20260903054504 | 80 | 118 | 3.0 | 8.0 | 0.00 | 0.00 | 0.00 | 76 | 1012.8 |
| 20260903054405 | 80 | 118 | 3.0 | 8.0 | 0.00 | 0.00 | 0.00 | 76 | 1012.7 |
| 20260903054303 | 80 | 117 | 3.0 | 8.0 | 0.00 | 0.00 | 0.00 | 76 | 1012.7 |
| 20260903054204 | 80 | 117 | 3.0 | 8.0 | 0.00 | 0.00 | 0.00 | 76 | 1012.7 |
| 20260903054103 | 80 | 118 | 3.0 | 8.0 | 0.00 | 0.00 | 0.00 | 76 | 1012.7 |
| 20260903054004 | 80 | 117 | 3.0 | 8.0 | 0.00 | 0.00 | 0.00 | 76 | 1012.7 |
| 20260903053804 | 80 | 120 | 3.0 | 6.0 | 0.00 | 0.00 | 0.00 | 76 | 1012.7 |
| 20260903053703 | 80 | 120 | 3.0 | 6.0 | 0.00 | 0.00 | 0.00 | 76 | 1012.7 |
| 20260903053604 | 80 | 121 | 3.0 | 6.0 | 0.00 | 0.00 | 0.00 | 76 | 1012.7 |
| 20260903053304 | 80 | 123 | 4.0 | 7.0 | 0.00 | 0.00 | 0.00 | 76 | 1012.8 |
| 20260903053104 | 80 | 124 | 4.0 | 8.0 | 0.00 | 0.00 | 0.00 | 75 | 1012.7 |
| 20260903052904 | 80 | 125 | 4.0 | 8.0 | 0.00 | 0.00 | 0.00 | 75 | 1012.8 |
| 20260903052604 | 80 | 122 | 4.0 | 9.0 | 0.00 | 0.00 | 0.00 | 75 | 1012.8 |
| 20260903052503 | 80 | 122 | 4.0 | 9.0 | 0.00 | 0.00 | 0.00 | 75 | 1012.8 |
| 20260903052404 | 80 | 121 | 4.0 | 9.0 | 0.00 | 0.00 | 0.00 | 75 | 1012.8 |
| 20260903052306 | 80 | 121 | 4.0 | 9.0 | 0.00 | 0.00 | 0.00 | 75 | 1012.8 |
| 20260903052203 | 80 | 122 | 4.0 | 9.0 | 0.00 | 0.00 | 0.00 | 75 | 1012.8 |
| 20260903052104 | 80 | 121 | 4.0 | 9.0 | 0.00 | 0.00 | 0.00 | 75 | 1012.8 |
| 20260903051903 | 80 | 119 | 5.0 | 9.0 | 0.00 | 0.00 | 0.00 | 75 | 1012.9 |
| 20260903051804 | 80 | 118 | 5.0 | 9.0 | 0.00 | 0.00 | 0.00 | 75 | 1012.8 |
| 20260903051703 | 80 | 117 | 5.0 | 9.0 | 0.00 | 0.00 | 0.00 | 75 | 1012.8 |
| 20260903051604 | 80 | 116 | 5.0 | 9.0 | 0.00 | 0.00 | 0.00 | 75 | 1012.8 |
| 20260903051503 | 80 | 117 | 5.0 | 9.0 | 0.00 | 0.00 | 0.00 | 75 | 1012.8 |
| 20260903051404 | 80 | 117 | 5.0 | 9.0 | 0.00 | 0.00 | 0.00 | 75 | 1012.8 |
| 20260903051205 | 80 | 115 | 5.0 | 9.0 | 0.00 | 0.00 | 0.00 | 75 | 1012.8 |
| 20260903051103 | 80 | 115 | 4.0 | 9.0 | 0.00 | 0.00 | 0.00 | 74 | 1012.7 |
| 20260903050903 | 80 | 113 | 4.0 | 9.0 | 0.00 | 0.00 | 0.00 | 74 | 1012.7 |
| 20260903050703 | 80 | 113 | 4.0 | 9.0 | 0.00 | 0.00 | 0.00 | 74 | 1012.7 |
| 20260903050504 | 80 | 115 | 4.0 | 9.0 | 0.00 | 0.00 | 0.00 | 74 | 1012.7 |
| 20260903050405 | 81 | 115 | 4.0 | 9.0 | 0.00 | 0.00 | 0.00 | 74 | 1012.7 |
| 20260903050304 | 80 | 115 | 4.0 | 8.0 | 0.00 | 0.00 | 0.00 | 74 | 1012.7 |
| 20260903050204 | 81 | 114 | 4.0 | 8.0 | 0.00 | 0.00 | 0.00 | 74 | 1012.6 |
| 20260903050104 | 81 | 113 | 4.0 | 8.0 | 0.00 | 0.00 | 0.00 | 74 | 1012.6 |
| 20260903045904 | 81 | 115 | 4.0 | 10.0 | 0.00 | 0.00 | 0.00 | 74 | 1012.6 |
| 20260903045803 | 81 | 116 | 5.0 | 10.0 | 0.00 | 0.00 | 0.00 | 74 | 1012.6 |
| 20260903045704 | 81 | 116 | 5.0 | 10.0 | 0.00 | 0.00 | 0.00 | 73 | 1012.6 |
| 20260903045603 | 81 | 115 | 5.0 | 10.0 | 0.00 | 0.00 | 0.00 | 73 | 1012.7 |
| 20260903045404 | 81 | 113 | 5.0 | 10.0 | 0.00 | 0.00 | 0.00 | 73 | 1012.7 |
| 20260903045306 | 81 | 112 | 5.0 | 10.0 | 0.00 | 0.00 | 0.00 | 73 | 1012.7 |
| 20260903045204 | 81 | 113 | 5.0 | 10.0 | 0.00 | 0.00 | 0.00 | 73 | 1012.6 |
| 20260903045103 | 81 | 113 | 5.0 | 11.0 | 0.00 | 0.00 | 0.00 | 73 | 1012.7 |
| 20260903045004 | 81 | 112 | 5.0 | 11.0 | 0.00 | 0.00 | 0.00 | 73 | 1012.6 |
| 20260903044903 | 81 | 113 | 5.0 | 11.0 | 0.00 | 0.00 | 0.00 | 73 | 1012.6 |
| 20260903044804 | 81 | 113 | 5.0 | 11.0 | 0.00 | 0.00 | 0.00 | 73 | 1012.6 |
| 20260903044703 | 81 | 112 | 5.0 | 11.0 | 0.00 | 0.00 | 0.00 | 73 | 1012.6 |
| 20260903044604 | 81 | 112 | 6.0 | 13.0 | 0.00 | 0.00 | 0.00 | 73 | 1012.6 |
| 20260903044504 | 81 | 111 | 6.0 | 13.0 | 0.00 | 0.00 | 0.00 | 73 | 1012.6 |
| 20260903044404 | 81 | 110 | 6.0 | 13.0 | 0.00 | 0.00 | 0.00 | 73 | 1012.6 |
| 20260903044303 | 81 | 110 | 6.0 | 13.0 | 0.00 | 0.00 | 0.00 | 73 | 1012.6 |
| 20260903044204 | 81 | 109 | 6.0 | 13.0 | 0.00 | 0.00 | 0.00 | 73 | 1012.6 |
| 20260903044103 | 81 | 107 | 6.0 | 13.0 | 0.00 | 0.00 | 0.00 | 73 | 1012.6 |
| 20260903043903 | 81 | 103 | 6.0 | 13.0 | 0.00 | 0.00 | 0.00 | 73 | 1012.6 |
| 20260903043804 | 81 | 102 | 6.0 | 13.0 | 0.00 | 0.00 | 0.00 | 73 | 1012.6 |
| 20260903043703 | 81 | 101 | 6.0 | 13.0 | 0.00 | 0.00 | 0.00 | 73 | 1012.6 |
| 20260903043604 | 81 | 101 | 6.0 | 11.0 | 0.00 | 0.00 | 0.00 | 73 | 1012.7 |
| 20260903043403 | 81 | 100 | 6.0 | 11.0 | 0.00 | 0.00 | 0.00 | 73 | 1012.6 |
| 20260903043304 | 82 | 100 | 6.0 | 11.0 | 0.00 | 0.00 | 0.00 | 73 | 1012.5 |
| 20260903043203 | 82 | 101 | 6.0 | 10.0 | 0.00 | 0.00 | 0.00 | 72 | 1012.6 |
| 20260903043104 | 82 | 102 | 6.0 | 10.0 | 0.00 | 0.00 | 0.00 | 72 | 1012.5 |
| 20260903043004 | 82 | 102 | 7.0 | 11.0 | 0.00 | 0.00 | 0.00 | 72 | 1012.6 |
| 20260903042804 | 82 | 104 | 6.0 | 14.0 | 0.00 | 0.00 | 0.00 | 72 | 1012.6 |
| 20260903042703 | 82 | 103 | 6.0 | 14.0 | 0.00 | 0.00 | 0.00 | 72 | 1012.6 |
| 20260903042604 | 82 | 104 | 7.0 | 14.0 | 0.00 | 0.00 | 0.00 | 72 | 1012.6 |
| 20260903042503 | 82 | 104 | 7.0 | 14.0 | 0.00 | 0.00 | 0.00 | 71 | 1012.6 |
| 20260903042404 | 82 | 106 | 8.0 | 14.0 | 0.00 | 0.00 | 0.00 | 71 | 1012.6 |
| 20260903042306 | 82 | 106 | 8.0 | 17.0 | 0.00 | 0.00 | 0.00 | 71 | 1012.6 |
| 20260903042204 | 82 | 105 | 8.0 | 17.0 | 0.00 | 0.00 | 0.00 | 71 | 1012.6 |
| 20260903042104 | 82 | 106 | 9.0 | 17.0 | 0.00 | 0.00 | 0.00 | 71 | 1012.7 |
| 20260903042004 | 82 | 106 | 9.0 | 17.0 | 0.00 | 0.00 | 0.00 | 71 | 1012.7 |
| 20260903041903 | 82 | 105 | 9.0 | 17.0 | 0.00 | 0.00 | 0.00 | 71 | 1012.6 |
| 20260903041804 | 82 | 105 | 9.0 | 17.0 | 0.00 | 0.00 | 0.00 | 71 | 1012.7 |
| 20260903041504 | 82 | 103 | 10.0 | 17.0 | 0.00 | 0.00 | 0.00 | 71 | 1012.6 |
| 20260903041404 | 82 | 103 | 9.0 | 18.0 | 0.00 | 0.00 | 0.00 | 71 | 1012.6 |
| 20260903041303 | 82 | 102 | 10.0 | 18.0 | 0.00 | 0.00 | 0.00 | 71 | 1012.7 |
| 20260903041204 | 82 | 102 | 10.0 | 18.0 | 0.00 | 0.00 | 0.00 | 70 | 1012.7 |
| 20260903041103 | 83 | 101 | 10.0 | 18.0 | 0.00 | 0.00 | 0.00 | 70 | 1012.7 |
| 20260903041004 | 83 | 101 | 9.0 | 18.0 | 0.00 | 0.00 | 0.00 | 70 | 1012.7 |
| 20260903040904 | 83 | 103 | 9.0 | 18.0 | 0.00 | 0.00 | 0.00 | 70 | 1012.7 |
| 20260903040804 | 83 | 104 | 9.0 | 18.0 | 0.00 | 0.00 | 0.00 | 70 | 1012.6 |
| 20260903040704 | 83 | 104 | 9.0 | 18.0 | 0.00 | 0.00 | 0.00 | 70 | 1012.6 |
| 20260903040404 | 83 | 107 | 8.0 | 14.0 | 0.00 | 0.00 | 0.00 | 70 | 1012.7 |
| 20260903040303 | 83 | 108 | 7.0 | 14.0 | 0.00 | 0.00 | 0.00 | 70 | 1012.8 |
| 20260903040204 | 83 | 110 | 7.0 | 13.0 | 0.00 | 0.00 | 0.00 | 70 | 1012.8 |
| 20260903040103 | 83 | 111 | 7.0 | 12.0 | 0.00 | 0.00 | 0.00 | 70 | 1012.8 |
| 20260903040004 | 83 | 110 | 7.0 | 12.0 | 0.00 | 0.00 | 0.00 | 69 | 1012.8 |
| 20260903035904 | 83 | 110 | 7.0 | 12.0 | 0.00 | 0.00 | 0.00 | 69 | 1012.9 |
| 20260903035803 | 83 | 108 | 7.0 | 12.0 | 0.00 | 0.00 | 0.00 | 69 | 1012.8 |
| 20260903035703 | 83 | 107 | 7.0 | 12.0 | 0.00 | 0.00 | 0.00 | 69 | 1012.8 |
| 20260903035503 | 83 | 104 | 7.0 | 12.0 | 0.00 | 0.00 | 0.00 | 69 | 1012.8 |
| 20260903035404 | 84 | 103 | 7.0 | 12.0 | 0.00 | 0.00 | 0.00 | 68 | 1012.8 |
| 20260903035306 | 84 | 102 | 7.0 | 12.0 | 0.00 | 0.00 | 0.00 | 68 | 1012.8 |
| 20260903035204 | 84 | 101 | 7.0 | 13.0 | 0.00 | 0.00 | 0.00 | 68 | 1012.8 |
| 20260903035103 | 84 | 100 | 7.0 | 13.0 | 0.00 | 0.00 | 0.00 | 68 | 1012.8 |
| 20260903034804 | 84 | 98 | 7.0 | 13.0 | 0.00 | 0.00 | 0.00 | 68 | 1012.8 |
| 20260903034704 | 84 | 98 | 7.0 | 13.0 | 0.00 | 0.00 | 0.00 | 68 | 1012.8 |
| 20260903034604 | 84 | 99 | 7.0 | 15.0 | 0.00 | 0.00 | 0.00 | 68 | 1012.7 |
| 20260903034504 | 84 | 99 | 7.0 | 15.0 | 0.00 | 0.00 | 0.00 | 68 | 1012.7 |
| 20260903034303 | 84 | 99 | 7.0 | 15.0 | 0.00 | 0.00 | 0.00 | 68 | 1012.7 |
| 20260903034204 | 84 | 97 | 7.0 | 15.0 | 0.00 | 0.00 | 0.00 | 68 | 1012.7 |
| 20260903034104 | 84 | 96 | 7.0 | 15.0 | 0.00 | 0.00 | 0.00 | 68 | 1012.7 |
| 20260903034004 | 84 | 96 | 8.0 | 15.0 | 0.00 | 0.00 | 0.00 | 68 | 1012.7 |
| 20260903033703 | 84 | 98 | 8.0 | 15.0 | 0.00 | 0.00 | 0.00 | 68 | 1012.6 |
| 20260903033604 | 84 | 98 | 7.0 | 14.0 | 0.00 | 0.00 | 0.00 | 68 | 1012.6 |
| 20260903033503 | 84 | 99 | 7.0 | 14.0 | 0.00 | 0.00 | 0.00 | 69 | 1012.6 |
| 20260903033306 | 84 | 100 | 7.0 | 14.0 | 0.00 | 0.00 | 0.00 | 68 | 1012.6 |
| 20260903033206 | 84 | 101 | 7.0 | 14.0 | 0.00 | 0.00 | 0.00 | 68 | 1012.6 |
| 20260903033106 | 84 | 102 | 7.0 | 14.0 | 0.00 | 0.00 | 0.00 | 68 | 1012.6 |
| 20260903033006 | 84 | 101 | 7.0 | 14.0 | 0.00 | 0.00 | 0.00 | 68 | 1012.6 |
| 20260903032906 | 84 | 99 | 7.0 | 14.0 | 0.00 | 0.00 | 0.00 | 68 | 1012.6 |
| 20260903032805 | 84 | 98 | 6.0 | 14.0 | 0.00 | 0.00 | 0.00 | 68 | 1012.6 |
| 20260903032706 | 84 | 96 | 6.0 | 12.0 | 0.00 | 0.00 | 0.00 | 68 | 1012.6 |
| 20260903032605 | 84 | 94 | 6.0 | 12.0 | 0.00 | 0.00 | 0.00 | 68 | 1012.5 |
| 20260903032406 | 84 | 93 | 6.0 | 12.0 | 0.00 | 0.00 | 0.00 | 68 | 1012.5 |
| 20260903032306 | 84 | 94 | 6.0 | 14.0 | 0.00 | 0.00 | 0.00 | 68 | 1012.5 |
| 20260903032206 | 84 | 94 | 6.0 | 14.0 | 0.00 | 0.00 | 0.00 | 68 | 1012.5 |
| 20260903032105 | 84 | 94 | 7.0 | 14.0 | 0.00 | 0.00 | 0.00 | 68 | 1012.5 |
| 20260903031906 | 84 | 98 | 8.0 | 14.0 | 0.00 | 0.00 | 0.00 | 68 | 1012.5 |
| 20260903031806 | 84 | 100 | 8.0 | 14.0 | 0.00 | 0.00 | 0.00 | 68 | 1012.5 |
| 20260903031705 | 84 | 101 | 8.0 | 14.0 | 0.00 | 0.00 | 0.00 | 68 | 1012.5 |
| 20260903031606 | 84 | 101 | 9.0 | 14.0 | 0.00 | 0.00 | 0.00 | 67 | 1012.4 |
| 20260903031406 | 85 | 102 | 9.0 | 15.0 | 0.00 | 0.00 | 0.00 | 67 | 1012.4 |
| 20260903031305 | 85 | 102 | 9.0 | 15.0 | 0.00 | 0.00 | 0.00 | 67 | 1012.4 |
| 20260903031206 | 85 | 102 | 9.0 | 15.0 | 0.00 | 0.00 | 0.00 | 67 | 1012.4 |
| 20260903031105 | 85 | 103 | 9.0 | 15.0 | 0.00 | 0.00 | 0.00 | 67 | 1012.4 |
| 20260903031006 | 85 | 101 | 9.0 | 15.0 | 0.00 | 0.00 | 0.00 | 66 | 1012.3 |
| 20260903030906 | 85 | 101 | 8.0 | 15.0 | 0.00 | 0.00 | 0.00 | 66 | 1012.4 |
| 20260903030705 | 85 | 99 | 8.0 | 15.0 | 0.00 | 0.00 | 0.00 | 64 | 1012.4 |
| 20260903030606 | 85 | 98 | 8.0 | 15.0 | 0.00 | 0.00 | 0.00 | 64 | 1012.4 |
| 20260903030506 | 85 | 98 | 8.0 | 15.0 | 0.00 | 0.00 | 0.00 | 64 | 1012.3 |
| 20260903030206 | 86 | 97 | 8.0 | 17.0 | 0.00 | 0.00 | 0.00 | 64 | 1012.3 |
| 20260903030006 | 86 | 96 | 9.0 | 17.0 | 0.00 | 0.00 | 0.00 | 64 | 1012.3 |
| 20260903025905 | 86 | 96 | 9.0 | 17.0 | 0.00 | 0.00 | 0.00 | 64 | 1012.3 |
| 20260903025806 | 86 | 94 | 9.0 | 17.0 | 0.00 | 0.00 | 0.00 | 64 | 1012.3 |
| 20260903025706 | 86 | 96 | 10.0 | 17.0 | 0.00 | 0.00 | 0.00 | 64 | 1012.2 |
| 20260903025606 | 86 | 97 | 10.0 | 19.0 | 0.00 | 0.00 | 0.00 | 64 | 1012.3 |
| 20260903025506 | 86 | 97 | 10.0 | 19.0 | 0.00 | 0.00 | 0.00 | 64 | 1012.3 |
| 20260903025405 | 86 | 97 | 10.0 | 19.0 | 0.00 | 0.00 | 0.00 | 63 | 1012.3 |
| 20260903025306 | 86 | 96 | 10.0 | 19.0 | 0.00 | 0.00 | 0.00 | 63 | 1012.3 |
| 20260903025205 | 86 | 96 | 11.0 | 19.0 | 0.00 | 0.00 | 0.00 | 63 | 1012.2 |
| 20260903025106 | 86 | 96 | 10.0 | 19.0 | 0.00 | 0.00 | 0.00 | 63 | 1012.3 |
| 20260903025006 | 86 | 96 | 10.0 | 19.0 | 0.00 | 0.00 | 0.00 | 63 | 1012.2 |
| 20260903024905 | 86 | 95 | 10.0 | 19.0 | 0.00 | 0.00 | 0.00 | 63 | 1012.3 |
| 20260903024806 | 86 | 96 | 9.0 | 19.0 | 0.00 | 0.00 | 0.00 | 62 | 1012.2 |
| 20260903024705 | 86 | 95 | 9.0 | 19.0 | 0.00 | 0.00 | 0.00 | 62 | 1012.2 |
| 20260903024606 | 86 | 93 | 8.0 | 16.0 | 0.00 | 0.00 | 0.00 | 62 | 1012.2 |
| 20260903024505 | 86 | 93 | 8.0 | 15.0 | 0.00 | 0.00 | 0.00 | 62 | 1012.2 |
| 20260903024406 | 87 | 93 | 8.0 | 15.0 | 0.00 | 0.00 | 0.00 | 62 | 1012.1 |
| 20260903024306 | 87 | 92 | 8.0 | 15.0 | 0.00 | 0.00 | 0.00 | 61 | 1012.0 |
| 20260903024106 | 87 | 94 | 8.0 | 14.0 | 0.00 | 0.00 | 0.00 | 61 | 1012.1 |
| 20260903024005 | 87 | 93 | 8.0 | 14.0 | 0.00 | 0.00 | 0.00 | 60 | 1012.1 |
| 20260903023906 | 87 | 93 | 7.0 | 14.0 | 0.00 | 0.00 | 0.00 | 60 | 1012.1 |
| 20260903023806 | 87 | 93 | 7.0 | 14.0 | 0.00 | 0.00 | 0.00 | 60 | 1012.0 |
| 20260903023606 | 87 | 92 | 8.0 | 15.0 | 0.00 | 0.00 | 0.00 | 59 | 1012.0 |
| 20260903023506 | 87 | 91 | 8.0 | 15.0 | 0.00 | 0.00 | 0.00 | 59 | 1012.0 |
| 20260903023406 | 87 | 90 | 8.0 | 15.0 | 0.00 | 0.00 | 0.00 | 58 | 1012.0 |
| 20260903023306 | 88 | 90 | 8.0 | 15.0 | 0.00 | 0.00 | 0.00 | 58 | 1012.0 |
| 20260903023206 | 88 | 88 | 8.0 | 15.0 | 0.00 | 0.00 | 0.00 | 58 | 1012.0 |
| 20260903023006 | 88 | 87 | 9.0 | 17.0 | 0.00 | 0.00 | 0.00 | 57 | 1011.9 |
| 20260903022905 | 88 | 89 | 10.0 | 18.0 | 0.00 | 0.00 | 0.00 | 57 | 1011.9 |
| 20260903022806 | 88 | 90 | 10.0 | 18.0 | 0.00 | 0.00 | 0.00 | 56 | 1011.8 |
| 20260903022705 | 88 | 91 | 10.0 | 18.0 | 0.00 | 0.00 | 0.00 | 56 | 1011.8 |
| 20260903022406 | 88 | 96 | 9.0 | 18.0 | 0.00 | 0.00 | 0.00 | 56 | 1011.8 |
| 20260903022306 | 88 | 97 | 8.0 | 18.0 | 0.00 | 0.00 | 0.00 | 55 | 1011.8 |
| 20260903022105 | 88 | 99 | 8.0 | 18.0 | 0.00 | 0.00 | 0.00 | 55 | 1011.7 |
| 20260903022007 | 89 | 100 | 7.0 | 18.0 | 0.00 | 0.00 | 0.00 | 54 | 1011.6 |
| 20260903021906 | 89 | 98 | 7.0 | 16.0 | 0.00 | 0.00 | 0.00 | 54 | 1011.6 |
| 20260903021705 | 89 | 92 | 7.0 | 14.0 | 0.00 | 0.00 | 0.00 | 54 | 1011.5 |
| 20260903021606 | 89 | 90 | 8.0 | 16.0 | 0.00 | 0.00 | 0.00 | 54 | 1011.5 |
| 20260903021506 | 89 | 90 | 9.0 | 16.0 | 0.00 | 0.00 | 0.00 | 54 | 1011.5 |
| 20260903021406 | 89 | 89 | 9.0 | 16.0 | 0.00 | 0.00 | 0.00 | 54 | 1011.4 |
| 20260903021206 | 89 | 89 | 10.0 | 16.0 | 0.00 | 0.00 | 0.00 | 54 | 1011.3 |
| 20260903021105 | 89 | 88 | 10.0 | 16.0 | 0.00 | 0.00 | 0.00 | 54 | 1011.3 |
| 20260903021006 | 89 | 86 | 10.0 | 17.0 | 0.00 | 0.00 | 0.00 | 54 | 1011.3 |
| 20260903020905 | 89 | 84 | 10.0 | 17.0 | 0.00 | 0.00 | 0.00 | 53 | 1011.3 |
| 20260903020806 | 89 | 84 | 11.0 | 17.0 | 0.00 | 0.00 | 0.00 | 53 | 1011.3 |
| 20260903020705 | 89 | 84 | 11.0 | 17.0 | 0.00 | 0.00 | 0.00 | 53 | 1011.3 |
| 20260903020606 | 89 | 82 | 10.0 | 17.0 | 0.00 | 0.00 | 0.00 | 53 | 1011.2 |
| 20260903020506 | 90 | 83 | 9.0 | 17.0 | 0.00 | 0.00 | 0.00 | 53 | 1011.2 |
| 20260903020405 | 90 | 82 | 8.0 | 17.0 | 0.00 | 0.00 | 0.00 | 53 | 1011.2 |
| 20260903020306 | 90 | 81 | 7.0 | 17.0 | 0.00 | 0.00 | 0.00 | 53 | 1011.2 |
| 20260903020205 | 90 | 80 | 7.0 | 17.0 | 0.00 | 0.00 | 0.00 | 53 | 1011.2 |
| 20260903020105 | 90 | 81 | 5.0 | 17.0 | 0.00 | 0.00 | 0.00 | 52 | 1011.2 |
| 20260903015905 | 90 | 86 | 3.0 | 17.0 | 0.00 | 0.00 | 0.00 | 53 | 1011.2 |
| 20260903015806 | 90 | 87 | 2.0 | 17.0 | 0.00 | 0.00 | 0.00 | 52 | 1011.1 |
| 20260903015605 | 90 | 104 | 1.0 | 6.0 | 0.00 | 0.00 | 0.00 | 51 | 1011.0 |
| 20260903015506 | 90 | 111 | 0.0 | 5.0 | 0.00 | 0.00 | 0.00 | 50 | 1010.8 |
| 20260903015405 | 90 | 128 | 0.0 | 2.0 | 0.00 | 0.00 | 0.00 | 51 | 1010.7 |
| 20260903015306 | 91 | 128 | 0.0 | 2.0 | 0.00 | 0.00 | 0.00 | 51 | 1010.7 |
| 20260903015206 | 91 | 131 | 0.0 | 2.0 | 0.00 | 0.00 | 0.00 | 51 | 1010.6 |
| 20260903015105 | 91 | 133 | 0.0 | 2.0 | 0.00 | 0.00 | 0.00 | 51 | 1010.6 |
| 20260903015006 | 91 | 130 | 0.0 | 2.0 | 0.00 | 0.00 | 0.00 | 51 | 1010.6 |
| 20260903014806 | 91 | 125 | 0.0 | 2.0 | 0.00 | 0.00 | 0.00 | 51 | 1010.6 |
| 20260903014705 | 91 | 122 | 1.0 | 2.0 | 0.00 | 0.00 | 0.00 | 51 | 1010.5 |
| 20260903014606 | 91 | 121 | 1.0 | 2.0 | 0.00 | 0.00 | 0.00 | 50 | 1010.5 |
| 20260903014505 | 91 | 119 | 1.0 | 3.0 | 0.00 | 0.00 | 0.00 | 50 | 1010.5 |
| 20260903014407 | 91 | 119 | 1.0 | 3.0 | 0.00 | 0.00 | 0.00 | 50 | 1010.5 |
| 20260903014306 | 91 | 119 | 1.0 | 3.0 | 0.00 | 0.00 | 0.00 | 50 | 1010.5 |
| 20260903014206 | 91 | 119 | 1.0 | 3.0 | 0.00 | 0.00 | 0.00 | 50 | 1010.5 |
| 20260903013806 | 90 | 118 | 1.0 | 3.0 | 0.00 | 0.00 | 0.00 | 51 | 1010.5 |
| 20260903013706 | 90 | 118 | 1.0 | 3.0 | 0.00 | 0.00 | 0.00 | 50 | 1010.6 |
| 20260903013605 | 91 | 118 | 1.0 | 3.0 | 0.00 | 0.00 | 0.00 | 50 | 1010.6 |
| 20260903013505 | 91 | 119 | 0.0 | 3.0 | 0.00 | 0.00 | 0.00 | 50 | 1010.6 |
| 20260903013406 | 91 | 120 | 0.0 | 3.0 | 0.00 | 0.00 | 0.00 | 50 | 1010.5 |
| 20260903013305 | 91 | 120 | 0.0 | 2.0 | 0.00 | 0.00 | 0.00 | 50 | 1010.6 |
| 20260903013206 | 91 | 120 | 0.0 | 2.0 | 0.00 | 0.00 | 0.00 | 50 | 1010.6 |
| 20260903013006 | 91 | 0 | 0.0 | 0.0 | 0.00 | 0.00 | 0.00 | 50 | 1010.6 |
| 20260903012905 | 91 | 0 | 0.0 | 0.0 | 0.00 | 0.00 | 0.00 | 50 | 1010.5 |
| 20260903012806 | 91 | 0 | 0.0 | 0.0 | 0.00 | 0.00 | 0.00 | 50 | 1010.6 |
| 20260903012605 | 91 | 0 | 0.0 | 0.0 | 0.00 | 0.00 | 0.00 | 50 | 1010.6 |
| 20260903012506 | 91 | 0 | 0.0 | 0.0 | 0.00 | 0.00 | 0.00 | 50 | 1010.6 |
| 20260903012406 | 91 | 0 | 0.0 | 0.0 | 0.00 | 0.00 | 0.00 | 50 | 1010.6 |
| 20260903012307 | 91 | 0 | 0.0 | 0.0 | 0.00 | 0.00 | 0.00 | 50 | 1010.5 |
| 20260903012205 | 91 | 0 | 0.0 | 0.0 | 0.00 | 0.00 | 0.00 | 50 | 1010.5 |
| 20260903012105 | 91 | 0 | 0.0 | 0.0 | 0.00 | 0.00 | 0.00 | 50 | 1010.5 |
| 20260903012006 | 91 | 0 | 0.0 | 0.0 | 0.00 | 0.00 | 0.00 | 50 | 1010.5 |
| 20260903011905 | 91 | 144 | 0.0 | 1.0 | 0.00 | 0.00 | 0.00 | 50 | 1010.5 |
| 20260903011806 | 91 | 144 | 0.0 | 1.0 | 0.00 | 0.00 | 0.00 | 50 | 1010.5 |
| 20260903011505 | 91 | 143 | 0.0 | 2.0 | 0.00 | 0.00 | 0.00 | 50 | 1010.5 |
| 20260903011305 | 91 | 144 | 1.0 | 2.0 | 0.00 | 0.00 | 0.00 | 50 | 1010.5 |
| 20260903011205 | 91 | 144 | 1.0 | 2.0 | 0.00 | 0.00 | 0.00 | 50 | 1010.5 |
| 20260903011106 | 91 | 144 | 1.0 | 2.0 | 0.00 | 0.00 | 0.00 | 50 | 1010.5 |
| 20260903010906 | 91 | 144 | 1.0 | 2.0 | 0.00 | 0.00 | 0.00 | 50 | 1010.5 |
| 20260903010805 | 91 | 144 | 1.0 | 2.0 | 0.00 | 0.00 | 0.00 | 50 | 1010.5 |
| 20260903010706 | 91 | 144 | 1.0 | 2.0 | 0.00 | 0.00 | 0.00 | 50 | 1010.5 |
| 20260903010606 | 91 | 144 | 1.0 | 2.0 | 0.00 | 0.00 | 0.00 | 50 | 1010.5 |
| 20260903010505 | 91 | 144 | 1.0 | 2.0 | 0.00 | 0.00 | 0.00 | 50 | 1010.5 |
| 20260903010406 | 91 | 144 | 1.0 | 2.0 | 0.00 | 0.00 | 0.00 | 50 | 1010.4 |
| 20260903010305 | 91 | 144 | 1.0 | 2.0 | 0.00 | 0.00 | 0.00 | 49 | 1010.4 |
| 20260903010105 | 91 | 144 | 1.0 | 2.0 | 0.00 | 0.00 | 0.00 | 49 | 1010.4 |
| 20260903010005 | 91 | 144 | 1.0 | 2.0 | 0.00 | 0.00 | 0.00 | 49 | 1010.4 |
| 20260903005906 | 91 | 144 | 1.0 | 2.0 | 0.00 | 0.00 | 0.00 | 49 | 1010.5 |
| 20260903005705 | 91 | 144 | 1.0 | 2.0 | 0.00 | 0.00 | 0.00 | 49 | 1010.4 |
| 20260903005607 | 91 | 144 | 1.0 | 2.0 | 0.00 | 0.00 | 0.00 | 49 | 1010.5 |
| 20260903005505 | 91 | 144 | 1.0 | 2.0 | 0.00 | 0.00 | 0.00 | 49 | 1010.5 |
| 20260903005306 | 91 | 144 | 1.0 | 2.0 | 0.00 | 0.00 | 0.00 | 49 | 1010.4 |
| 20260903005205 | 91 | 144 | 1.0 | 2.0 | 0.00 | 0.00 | 0.00 | 49 | 1010.5 |
| 20260903005106 | 91 | 144 | 1.0 | 2.0 | 0.00 | 0.00 | 0.00 | 49 | 1010.5 |
| 20260903004906 | 92 | 144 | 1.0 | 2.0 | 0.00 | 0.00 | 0.00 | 49 | 1010.4 |
| 20260903004806 | 92 | 144 | 0.0 | 2.0 | 0.00 | 0.00 | 0.00 | 49 | 1010.5 |
| 20260903004606 | 92 | 144 | 1.0 | 2.0 | 0.00 | 0.00 | 0.00 | 49 | 1010.5 |
| 20260903004406 | 92 | 141 | 1.0 | 2.0 | 0.00 | 0.00 | 0.00 | 49 | 1010.4 |
| 20260903004306 | 92 | 136 | 1.0 | 3.0 | 0.00 | 0.00 | 0.00 | 48 | 1010.5 |
| 20260903004206 | 92 | 127 | 1.0 | 3.0 | 0.00 | 0.00 | 0.00 | 48 | 1010.5 |
| 20260903004106 | 92 | 118 | 1.0 | 3.0 | 0.00 | 0.00 | 0.00 | 48 | 1010.5 |
| 20260903004006 | 92 | 112 | 1.0 | 3.0 | 0.00 | 0.00 | 0.00 | 49 | 1010.5 |
| 20260903003906 | 92 | 108 | 2.0 | 3.0 | 0.00 | 0.00 | 0.00 | 49 | 1010.4 |
| 20260903003805 | 92 | 104 | 2.0 | 3.0 | 0.00 | 0.00 | 0.00 | 48 | 1010.4 |
| 20260903003706 | 92 | 101 | 2.0 | 3.0 | 0.00 | 0.00 | 0.00 | 48 | 1010.4 |
| 20260903003605 | 92 | 95 | 2.0 | 3.0 | 0.00 | 0.00 | 0.00 | 48 | 1010.5 |
| 20260903003506 | 92 | 88 | 2.0 | 3.0 | 0.00 | 0.00 | 0.00 | 48 | 1010.5 |
| 20260903003305 | 92 | 73 | 2.0 | 3.0 | 0.00 | 0.00 | 0.00 | 48 | 1010.5 |
| 20260903003206 | 92 | 69 | 2.0 | 3.0 | 0.00 | 0.00 | 0.00 | 48 | 1010.5 |
| 20260903003105 | 92 | 66 | 2.0 | 3.0 | 0.00 | 0.00 | 0.00 | 48 | 1010.5 |
| 20260903003006 | 92 | 63 | 2.0 | 3.0 | 0.00 | 0.00 | 0.00 | 48 | 1010.5 |
| 20260903002806 | 92 | 60 | 2.0 | 3.0 | 0.00 | 0.00 | 0.00 | 47 | 1010.4 |
| 20260903002705 | 92 | 61 | 2.0 | 3.0 | 0.00 | 0.00 | 0.00 | 47 | 1010.4 |
| 20260903002606 | 92 | 62 | 2.0 | 3.0 | 0.00 | 0.00 | 0.00 | 47 | 1010.4 |
| 20260903002505 | 92 | 66 | 2.0 | 3.0 | 0.00 | 0.00 | 0.00 | 47 | 1010.5 |
| 20260903002406 | 92 | 70 | 2.0 | 3.0 | 0.00 | 0.00 | 0.00 | 47 | 1010.5 |
| 20260903002306 | 92 | 72 | 2.0 | 3.0 | 0.00 | 0.00 | 0.00 | 47 | 1010.5 |
| 20260903002206 | 92 | 74 | 2.0 | 3.0 | 0.00 | 0.00 | 0.00 | 48 | 1010.4 |
| 20260903002105 | 92 | 74 | 2.0 | 3.0 | 0.00 | 0.00 | 0.00 | 48 | 1010.4 |
| 20260903002006 | 92 | 75 | 2.0 | 3.0 | 0.00 | 0.00 | 0.00 | 48 | 1010.5 |
| 20260903001905 | 92 | 77 | 2.0 | 4.0 | 0.00 | 0.00 | 0.00 | 48 | 1010.4 |
| 20260903001806 | 92 | 78 | 2.0 | 4.0 | 0.00 | 0.00 | 0.00 | 48 | 1010.4 |
| 20260903001705 | 92 | 80 | 2.0 | 4.0 | 0.00 | 0.00 | 0.00 | 48 | 1010.4 |
| 20260903001605 | 92 | 82 | 2.0 | 4.0 | 0.00 | 0.00 | 0.00 | 47 | 1010.4 |
| 20260903001506 | 92 | 82 | 2.0 | 4.0 | 0.00 | 0.00 | 0.00 | 47 | 1010.5 |
| 20260903001405 | 92 | 83 | 2.0 | 4.0 | 0.00 | 0.00 | 0.00 | 47 | 1010.4 |
| 20260903001305 | 92 | 83 | 2.0 | 4.0 | 0.00 | 0.00 | 0.00 | 48 | 1010.4 |
| 20260903001205 | 92 | 83 | 2.0 | 4.0 | 0.00 | 0.00 | 0.00 | 48 | 1010.4 |
| 20260903001106 | 92 | 84 | 2.0 | 4.0 | 0.00 | 0.00 | 0.00 | 48 | 1010.5 |
| 20260903001005 | 92 | 84 | 2.0 | 4.0 | 0.00 | 0.00 | 0.00 | 48 | 1010.5 |
| 20260903000906 | 92 | 82 | 3.0 | 4.0 | 0.00 | 0.00 | 0.00 | 48 | 1010.5 |
| 20260903000805 | 93 | 80 | 3.0 | 4.0 | 0.00 | 0.00 | 0.00 | 48 | 1010.5 |
| 20260903000705 | 93 | 80 | 3.0 | 4.0 | 0.00 | 0.00 | 0.00 | 48 | 1010.5 |
| 20260903000605 | 93 | 78 | 3.0 | 4.0 | 0.00 | 0.00 | 0.00 | 48 | 1010.5 |
| 20260903000506 | 93 | 76 | 3.0 | 4.0 | 0.00 | 0.00 | 0.00 | 48 | 1010.4 |
| 20260903000405 | 93 | 71 | 3.0 | 4.0 | 0.00 | 0.00 | 0.00 | 48 | 1010.5 |
| 20260903000105 | 93 | 54 | 3.0 | 6.0 | 0.00 | 0.00 | 0.00 | 47 | 1010.4 |
| 20260903000005 | 93 | 49 | 3.0 | 6.0 | 0.00 | 0.00 | 0.00 | 47 | 1010.4 |
| 20260902235905 | 93 | 47 | 3.0 | 6.0 | 0.00 | 0.00 | 0.00 | 47 | 1010.5 |
| 20260902235705 | 93 | 42 | 3.0 | 6.0 | 0.00 | 0.00 | 0.00 | 47 | 1010.4 |
| 20260902235606 | 93 | 43 | 3.0 | 6.0 | 0.00 | 0.00 | 0.00 | 47 | 1010.4 |
| 20260902235306 | 94 | 54 | 3.0 | 6.0 | 0.00 | 0.00 | 0.00 | 47 | 1010.5 |
| 20260902235206 | 94 | 57 | 3.0 | 6.0 | 0.00 | 0.00 | 0.00 | 46 | 1010.5 |
| 20260902235105 | 94 | 61 | 3.0 | 6.0 | 0.00 | 0.00 | 0.00 | 46 | 1010.5 |
| 20260902235005 | 94 | 65 | 3.0 | 5.0 | 0.00 | 0.00 | 0.00 | 46 | 1010.5 |
| 20260902234905 | 94 | 68 | 3.0 | 5.0 | 0.00 | 0.00 | 0.00 | 46 | 1010.5 |
| 20260902234805 | 94 | 73 | 3.0 | 5.0 | 0.00 | 0.00 | 0.00 | 46 | 1010.5 |
| 20260902234706 | 94 | 75 | 4.0 | 6.0 | 0.00 | 0.00 | 0.00 | 46 | 1010.5 |
| 20260902234605 | 94 | 74 | 4.0 | 6.0 | 0.00 | 0.00 | 0.00 | 45 | 1010.5 |
| 20260902234506 | 94 | 75 | 4.0 | 7.0 | 0.00 | 0.00 | 0.00 | 46 | 1010.5 |
| 20260902234405 | 94 | 76 | 4.0 | 7.0 | 0.00 | 0.00 | 0.00 | 46 | 1010.5 |
| 20260902234006 | 94 | 72 | 4.0 | 7.0 | 0.00 | 0.00 | 0.00 | 46 | 1010.5 |
| 20260902233905 | 94 | 69 | 4.0 | 7.0 | 0.00 | 0.00 | 0.00 | 46 | 1010.5 |
| 20260902233805 | 94 | 66 | 3.0 | 7.0 | 0.00 | 0.00 | 0.00 | 46 | 1010.6 |
| 20260902233705 | 94 | 65 | 3.0 | 7.0 | 0.00 | 0.00 | 0.00 | 46 | 1010.6 |
| 20260902233605 | 94 | 67 | 3.0 | 7.0 | 0.00 | 0.00 | 0.00 | 46 | 1010.5 |
| 20260902233506 | 94 | 66 | 3.0 | 5.0 | 0.00 | 0.00 | 0.00 | 46 | 1010.5 |
| 20260902233305 | 94 | 62 | 2.0 | 5.0 | 0.00 | 0.00 | 0.00 | 46 | 1010.5 |
| 20260902233205 | 93 | 58 | 3.0 | 6.0 | 0.00 | 0.00 | 0.00 | 46 | 1010.5 |
| 20260902233006 | 93 | 52 | 3.0 | 11.0 | 0.00 | 0.00 | 0.00 | 46 | 1010.4 |
| 20260902232906 | 93 | 54 | 4.0 | 11.0 | 0.00 | 0.00 | 0.00 | 47 | 1010.4 |
| 20260902232705 | 93 | 49 | 4.0 | 11.0 | 0.00 | 0.00 | 0.00 | 47 | 1010.5 |
| 20260902232506 | 93 | 41 | 5.0 | 13.0 | 0.00 | 0.00 | 0.00 | 47 | 1010.5 |
| 20260902232405 | 93 | 41 | 5.0 | 13.0 | 0.00 | 0.00 | 0.00 | 47 | 1010.5 |
| 20260902232306 | 93 | 41 | 4.0 | 13.0 | 0.00 | 0.00 | 0.00 | 46 | 1010.6 |
| 20260902232206 | 94 | 41 | 4.0 | 13.0 | 0.00 | 0.00 | 0.00 | 47 | 1010.5 |
| 20260902232105 | 94 | 40 | 3.0 | 13.0 | 0.00 | 0.00 | 0.00 | 47 | 1010.6 |
| 20260902232006 | 94 | 35 | 3.0 | 13.0 | 0.00 | 0.00 | 0.00 | 47 | 1010.6 |
| 20260902231905 | 94 | 31 | 4.0 | 13.0 | 0.00 | 0.00 | 0.00 | 46 | 1010.6 |
| 20260902231805 | 94 | 32 | 4.0 | 13.0 | 0.00 | 0.00 | 0.00 | 46 | 1010.6 |
| 20260902231705 | 94 | 33 | 3.0 | 13.0 | 0.00 | 0.00 | 0.00 | 45 | 1010.6 |
| 20260902231605 | 94 | 36 | 4.0 | 11.0 | 0.00 | 0.00 | 0.00 | 45 | 1010.6 |
| 20260902231506 | 94 | 35 | 4.0 | 11.0 | 0.00 | 0.00 | 0.00 | 45 | 1010.6 |
| 20260902231405 | 94 | 34 | 4.0 | 11.0 | 0.00 | 0.00 | 0.00 | 44 | 1010.6 |
| 20260902231305 | 94 | 33 | 4.0 | 11.0 | 0.00 | 0.00 | 0.00 | 45 | 1010.6 |
| 20260902231106 | 94 | 30 | 4.0 | 11.0 | 0.00 | 0.00 | 0.00 | 45 | 1010.6 |
| 20260902231005 | 94 | 30 | 3.0 | 11.0 | 0.00 | 0.00 | 0.00 | 44 | 1010.6 |
| 20260902230905 | 94 | 28 | 3.0 | 9.0 | 0.00 | 0.00 | 0.00 | 45 | 1010.6 |
| 20260902230805 | 95 | 23 | 2.0 | 9.0 | 0.00 | 0.00 | 0.00 | 44 | 1010.6 |
| 20260902230705 | 95 | 17 | 2.0 | 9.0 | 0.00 | 0.00 | 0.00 | 43 | 1010.6 |
| 20260902230505 | 96 | 346 | 1.0 | 9.0 | 0.00 | 0.00 | 0.00 | 42 | 1010.6 |
| 20260902230405 | 96 | 275 | 1.0 | 5.0 | 0.00 | 0.00 | 0.00 | 41 | 1010.5 |
| 20260902230306 | 96 | 245 | 1.0 | 3.0 | 0.00 | 0.00 | 0.00 | 41 | 1010.5 |
| 20260902230205 | 95 | 231 | 1.0 | 4.0 | 0.00 | 0.00 | 0.00 | 41 | 1010.5 |
| 20260902230105 | 95 | 223 | 1.0 | 4.0 | 0.00 | 0.00 | 0.00 | 41 | 1010.5 |
| 20260902230005 | 95 | 220 | 2.0 | 4.0 | 0.00 | 0.00 | 0.00 | 41 | 1010.5 |
| 20260902225906 | 95 | 216 | 2.0 | 5.0 | 0.00 | 0.00 | 0.00 | 41 | 1010.5 |
| 20260902225706 | 95 | 209 | 2.0 | 5.0 | 0.00 | 0.00 | 0.00 | 41 | 1010.5 |
| 20260902225605 | 95 | 205 | 2.0 | 5.0 | 0.00 | 0.00 | 0.00 | 41 | 1010.5 |
| 20260902225406 | 95 | 198 | 2.0 | 5.0 | 0.00 | 0.00 | 0.00 | 41 | 1010.5 |
| 20260902225306 | 95 | 196 | 2.0 | 5.0 | 0.00 | 0.00 | 0.00 | 40 | 1010.5 |
| 20260902225005 | 95 | 190 | 3.0 | 5.0 | 0.00 | 0.00 | 0.00 | 40 | 1010.5 |
| 20260902224906 | 95 | 188 | 3.0 | 4.0 | 0.00 | 0.00 | 0.00 | 40 | 1010.5 |
| 20260902224805 | 95 | 189 | 3.0 | 4.0 | 0.00 | 0.00 | 0.00 | 43 | 1010.6 |
| 20260902224706 | 95 | 186 | 3.0 | 4.0 | 0.00 | 0.00 | 0.00 | 43 | 1010.5 |
| 20260902224605 | 95 | 186 | 3.0 | 5.0 | 0.00 | 0.00 | 0.00 | 43 | 1010.5 |
| 20260902224506 | 95 | 185 | 3.0 | 5.0 | 0.00 | 0.00 | 0.00 | 43 | 1010.5 |
| 20260902224405 | 95 | 182 | 3.0 | 5.0 | 0.00 | 0.00 | 0.00 | 43 | 1010.4 |
| 20260902224306 | 95 | 181 | 3.0 | 5.0 | 0.00 | 0.00 | 0.00 | 43 | 1010.4 |
| 20260902224105 | 95 | 185 | 3.0 | 5.0 | 0.00 | 0.00 | 0.00 | 43 | 1010.4 |
| 20260902224005 | 95 | 186 | 3.0 | 5.0 | 0.00 | 0.00 | 0.00 | 43 | 1010.4 |
| 20260902223906 | 95 | 188 | 3.0 | 5.0 | 0.00 | 0.00 | 0.00 | 43 | 1010.4 |
| 20260902223805 | 95 | 188 | 3.0 | 5.0 | 0.00 | 0.00 | 0.00 | 43 | 1010.4 |
| 20260902223605 | 95 | 195 | 3.0 | 7.0 | 0.00 | 0.00 | 0.00 | 43 | 1010.5 |
| 20260902223506 | 95 | 199 | 3.0 | 7.0 | 0.00 | 0.00 | 0.00 | 43 | 1010.5 |
| 20260902223405 | 95 | 203 | 3.0 | 8.0 | 0.00 | 0.00 | 0.00 | 42 | 1010.5 |
| 20260902223205 | 95 | 205 | 3.0 | 8.0 | 0.00 | 0.00 | 0.00 | 41 | 1010.6 |
| 20260902223105 | 95 | 205 | 3.0 | 8.0 | 0.00 | 0.00 | 0.00 | 42 | 1010.5 |
| 20260902223005 | 95 | 206 | 4.0 | 8.0 | 0.00 | 0.00 | 0.00 | 43 | 1010.6 |
| 20260902222805 | 95 | 206 | 4.0 | 8.0 | 0.00 | 0.00 | 0.00 | 43 | 1010.6 |
| 20260902222705 | 94 | 206 | 4.0 | 8.0 | 0.00 | 0.00 | 0.00 | 43 | 1010.6 |
| 20260902222605 | 94 | 205 | 4.0 | 8.0 | 0.00 | 0.00 | 0.00 | 44 | 1010.5 |
| 20260902222506 | 94 | 206 | 4.0 | 8.0 | 0.00 | 0.00 | 0.00 | 44 | 1010.6 |
| 20260902222405 | 93 | 206 | 5.0 | 7.0 | 0.00 | 0.00 | 0.00 | 45 | 1010.5 |
| 20260902222306 | 93 | 206 | 5.0 | 8.0 | 0.00 | 0.00 | 0.00 | 46 | 1010.5 |
| 20260902222206 | 92 | 207 | 5.0 | 8.0 | 0.00 | 0.00 | 0.00 | 47 | 1010.6 |
| 20260902222105 | 92 | 206 | 5.0 | 9.0 | 0.00 | 0.00 | 0.00 | 51 | 1010.5 |
| 20260902221905 | 91 | 203 | 6.0 | 10.0 | 0.00 | 0.00 | 0.00 | 51 | 1010.6 |
| 20260902221806 | 90 | 202 | 6.0 | 13.0 | 0.00 | 0.00 | 0.00 | 51 | 1010.6 |
| 20260902221705 | 89 | 201 | 6.0 | 13.0 | 0.00 | 0.00 | 0.00 | 51 | 1010.6 |
| 20260902221605 | 89 | 201 | 7.0 | 14.0 | 0.00 | 0.00 | 0.00 | 52 | 1010.7 |
| 20260902221505 | 89 | 202 | 7.0 | 14.0 | 0.00 | 0.00 | 0.00 | 53 | 1010.7 |
| 20260902221405 | 88 | 203 | 7.0 | 14.0 | 0.00 | 0.00 | 0.00 | 53 | 1010.7 |
| 20260902221305 | 88 | 204 | 7.0 | 14.0 | 0.00 | 0.00 | 0.00 | 54 | 1010.7 |
| 20260902221105 | 87 | 204 | 7.0 | 14.0 | 0.00 | 0.00 | 0.00 | 54 | 1010.7 |
| 20260902221006 | 87 | 205 | 7.0 | 14.0 | 0.00 | 0.00 | 0.00 | 56 | 1010.8 |
| 20260902220905 | 87 | 206 | 7.0 | 14.0 | 0.00 | 0.00 | 0.00 | 56 | 1010.8 |
| 20260902220804 | 87 | 206 | 7.0 | 14.0 | 0.00 | 0.00 | 0.00 | 57 | 1010.8 |
| 20260902220705 | 87 | 206 | 7.0 | 14.0 | 0.00 | 0.00 | 0.00 | 59 | 1010.8 |
| 20260902220605 | 87 | 206 | 7.0 | 12.0 | 0.00 | 0.00 | 0.00 | 59 | 1010.9 |
| 20260902220305 | 87 | 202 | 8.0 | 16.0 | 0.00 | 0.00 | 0.00 | 59 | 1010.9 |
| 20260902220205 | 87 | 203 | 8.0 | 16.0 | 0.00 | 0.00 | 0.00 | 59 | 1010.9 |
| 20260902220106 | 86 | 204 | 8.0 | 16.0 | 0.00 | 0.00 | 0.00 | 59 | 1011.0 |
| 20260902220005 | 86 | 205 | 9.0 | 16.0 | 0.00 | 0.00 | 0.00 | 60 | 1011.0 |
| 20260902215905 | 86 | 207 | 9.0 | 16.0 | 0.00 | 0.00 | 0.00 | 59 | 1011.1 |
| 20260902215805 | 86 | 210 | 9.0 | 16.0 | 0.00 | 0.00 | 0.00 | 59 | 1011.1 |
| 20260902215705 | 86 | 212 | 10.0 | 16.0 | 0.00 | 0.00 | 0.00 | 59 | 1011.1 |
| 20260902215605 | 86 | 214 | 10.0 | 16.0 | 0.00 | 0.00 | 0.00 | 59 | 1011.2 |
| 20260902215506 | 86 | 217 | 10.0 | 17.0 | 0.00 | 0.00 | 0.00 | 60 | 1011.2 |
| 20260902215405 | 86 | 220 | 10.0 | 22.0 | 0.00 | 0.00 | 0.00 | 60 | 1011.2 |
| 20260902215306 | 86 | 222 | 10.0 | 22.0 | 0.00 | 0.00 | 0.00 | 60 | 1011.2 |
| 20260902215205 | 86 | 225 | 10.0 | 22.0 | 0.00 | 0.00 | 0.00 | 60 | 1011.2 |
| 20260902215105 | 86 | 227 | 10.0 | 22.0 | 0.00 | 0.00 | 0.00 | 60 | 1011.3 |
| 20260902215006 | 85 | 228 | 10.0 | 22.0 | 0.00 | 0.00 | 0.00 | 59 | 1011.2 |
| 20260902214905 | 84 | 231 | 10.0 | 22.0 | 0.00 | 0.00 | 0.00 | 64 | 1011.2 |
| 20260902214805 | 84 | 233 | 10.0 | 22.0 | 0.00 | 0.00 | 0.00 | 64 | 1011.3 |
| 20260902214706 | 85 | 234 | 9.0 | 22.0 | 0.00 | 0.00 | 0.00 | 64 | 1011.3 |
| 20260902214605 | 85 | 237 | 9.0 | 22.0 | 0.00 | 0.00 | 0.00 | 63 | 1011.3 |
| 20260902214506 | 85 | 240 | 9.0 | 22.0 | 0.00 | 0.00 | 0.00 | 62 | 1011.4 |
| 20260902214405 | 86 | 243 | 10.0 | 20.0 | 0.00 | 0.00 | 0.00 | 63 | 1011.3 |
| 20260902214305 | 86 | 246 | 10.0 | 20.0 | 0.00 | 0.00 | 0.00 | 62 | 1011.3 |
| 20260902214206 | 86 | 250 | 11.0 | 20.0 | 0.00 | 0.00 | 0.00 | 62 | 1011.3 |
| 20260902214105 | 86 | 255 | 11.0 | 20.0 | 0.00 | 0.00 | 0.00 | 62 | 1011.3 |
| 20260902214005 | 86 | 256 | 11.0 | 20.0 | 0.00 | 0.00 | 0.00 | 62 | 1011.2 |
| 20260902213905 | 86 | 258 | 11.0 | 20.0 | 0.00 | 0.00 | 0.00 | 62 | 1011.3 |
| 20260902213805 | 86 | 261 | 10.0 | 20.0 | 0.00 | 0.00 | 0.00 | 62 | 1011.4 |
| 20260902213705 | 86 | 265 | 10.0 | 18.0 | 0.00 | 0.00 | 0.00 | 61 | 1011.3 |
| 20260902213605 | 87 | 268 | 10.0 | 18.0 | 0.00 | 0.00 | 0.00 | 60 | 1011.4 |
| 20260902213505 | 87 | 271 | 10.0 | 18.0 | 0.00 | 0.00 | 0.00 | 60 | 1011.4 |
| 20260902213405 | 88 | 273 | 10.0 | 18.0 | 0.00 | 0.00 | 0.00 | 61 | 1011.3 |
| 20260902213305 | 88 | 276 | 9.0 | 18.0 | 0.00 | 0.00 | 0.00 | 60 | 1011.3 |
| 20260902213205 | 88 | 277 | 9.0 | 18.0 | 0.00 | 0.00 | 0.00 | 57 | 1011.3 |
| 20260902213105 | 89 | 279 | 8.0 | 18.0 | 0.00 | 0.00 | 0.00 | 57 | 1011.3 |
| 20260902212905 | 91 | 288 | 8.0 | 18.0 | 0.00 | 0.00 | 0.00 | 57 | 1011.3 |
| 20260902212805 | 92 | 296 | 8.0 | 16.0 | 0.00 | 0.00 | 0.00 | 56 | 1011.3 |
| 20260902212705 | 93 | 298 | 8.0 | 16.0 | 0.00 | 0.00 | 0.00 | 48 | 1011.2 |
| 20260902212505 | 94 | 310 | 8.0 | 15.0 | 0.00 | 0.00 | 0.00 | 46 | 1011.1 |
| 20260902212405 | 94 | 312 | 7.0 | 14.0 | 0.00 | 0.00 | 0.00 | 46 | 1011.1 |
| 20260902212306 | 94 | 312 | 7.0 | 14.0 | 0.00 | 0.00 | 0.00 | 45 | 1011.1 |
| 20260902212205 | 94 | 311 | 7.0 | 14.0 | 0.00 | 0.00 | 0.00 | 45 | 1011.1 |
| 20260902212105 | 95 | 308 | 7.0 | 14.0 | 0.00 | 0.00 | 0.00 | 45 | 1011.1 |
| 20260902212006 | 95 | 303 | 6.0 | 14.0 | 0.00 | 0.00 | 0.00 | 44 | 1011.0 |
| 20260902211906 | 95 | 300 | 6.0 | 14.0 | 0.00 | 0.00 | 0.00 | 44 | 1011.0 |
| 20260902211805 | 95 | 288 | 5.0 | 14.0 | 0.00 | 0.00 | 0.00 | 44 | 1011.0 |
| 20260902211706 | 96 | 273 | 4.0 | 14.0 | 0.00 | 0.00 | 0.00 | 43 | 1011.1 |
| 20260902211605 | 96 | 230 | 3.0 | 14.0 | 0.00 | 0.00 | 0.00 | 43 | 1011.0 |
| 20260902211506 | 96 | 201 | 3.0 | 8.0 | 0.00 | 0.00 | 0.00 | 43 | 1010.9 |
| 20260902211405 | 96 | 176 | 3.0 | 8.0 | 0.00 | 0.00 | 0.00 | 42 | 1010.9 |
| 20260902211306 | 96 | 164 | 3.0 | 8.0 | 0.00 | 0.00 | 0.00 | 42 | 1010.9 |
| 20260902211105 | 96 | 129 | 3.0 | 9.0 | 0.00 | 0.00 | 0.00 | 42 | 1010.8 |
| 20260902210906 | 96 | 118 | 3.0 | 9.0 | 0.00 | 0.00 | 0.00 | 41 | 1010.9 |
| 20260902210805 | 97 | 125 | 4.0 | 9.0 | 0.00 | 0.00 | 0.00 | 41 | 1010.8 |
| 20260902210705 | 97 | 131 | 3.0 | 9.0 | 0.00 | 0.00 | 0.00 | 40 | 1010.8 |
| 20260902210605 | 97 | 128 | 3.0 | 9.0 | 0.00 | 0.00 | 0.00 | 40 | 1010.8 |
| 20260902210505 | 98 | 126 | 3.0 | 9.0 | 0.00 | 0.00 | 0.00 | 40 | 1010.8 |
| 20260902210405 | 98 | 128 | 3.0 | 9.0 | 0.00 | 0.00 | 0.00 | 40 | 1010.8 |
| 20260902210305 | 98 | 133 | 3.0 | 9.0 | 0.00 | 0.00 | 0.00 | 40 | 1010.8 |
| 20260902210205 | 98 | 152 | 2.0 | 9.0 | 0.00 | 0.00 | 0.00 | 39 | 1010.8 |
| 20260902210106 | 99 | 174 | 3.0 | 6.0 | 0.00 | 0.00 | 0.00 | 39 | 1010.8 |
| 20260902205705 | 100 | 212 | 3.0 | 9.0 | 0.00 | 0.00 | 0.00 | 37 | 1010.8 |
| 20260902205605 | 101 | 215 | 3.0 | 9.0 | 0.00 | 0.00 | 0.00 | 36 | 1010.7 |
| 20260902205505 | 101 | 220 | 4.0 | 9.0 | 0.00 | 0.00 | 0.00 | 34 | 1010.7 |
| 20260902205405 | 102 | 223 | 4.0 | 9.0 | 0.00 | 0.00 | 0.00 | 35 | 1010.7 |
| 20260902205306 | 102 | 234 | 4.0 | 9.0 | 0.00 | 0.00 | 0.00 | 35 | 1010.6 |
| 20260902205205 | 102 | 249 | 5.0 | 9.0 | 0.00 | 0.00 | 0.00 | 34 | 1010.6 |
| 20260902205105 | 102 | 265 | 5.0 | 9.0 | 0.00 | 0.00 | 0.00 | 34 | 1010.7 |
| 20260902205005 | 103 | 276 | 5.0 | 9.0 | 0.00 | 0.00 | 0.00 | 34 | 1010.7 |
| 20260902204805 | 102 | 292 | 4.0 | 9.0 | 0.00 | 0.00 | 0.00 | 34 | 1010.8 |
| 20260902204706 | 102 | 296 | 4.0 | 9.0 | 0.00 | 0.00 | 0.00 | 34 | 1010.8 |
| 20260902204505 | 102 | 302 | 4.0 | 9.0 | 0.00 | 0.00 | 0.00 | 34 | 1010.8 |
| 20260902204405 | 102 | 305 | 4.0 | 9.0 | 0.00 | 0.00 | 0.00 | 35 | 1010.9 |
| 20260902204305 | 102 | 316 | 4.0 | 9.0 | 0.00 | 0.00 | 0.00 | 35 | 1010.9 |
| 20260902204105 | 101 | 84 | 4.0 | 9.0 | 0.00 | 0.00 | 0.00 | 35 | 1010.9 |
| 20260902204005 | 101 | 96 | 4.0 | 9.0 | 0.00 | 0.00 | 0.00 | 35 | 1011.0 |
| 20260902203905 | 101 | 97 | 4.0 | 9.0 | 0.00 | 0.00 | 0.00 | 36 | 1011.0 |
| 20260902203804 | 101 | 100 | 4.0 | 9.0 | 0.00 | 0.00 | 0.00 | 36 | 1011.0 |
| 20260902203705 | 101 | 102 | 4.0 | 9.0 | 0.00 | 0.00 | 0.00 | 35 | 1011.0 |
| 20260902203506 | 101 | 100 | 4.0 | 9.0 | 0.00 | 0.00 | 0.00 | 35 | 1011.0 |
| 20260902203405 | 101 | 106 | 3.0 | 9.0 | 0.00 | 0.00 | 0.00 | 36 | 1011.0 |
| 20260902203306 | 101 | 115 | 3.0 | 9.0 | 0.00 | 0.00 | 0.00 | 36 | 1011.0 |
| 20260902203205 | 101 | 124 | 3.0 | 9.0 | 0.00 | 0.00 | 0.00 | 36 | 1011.0 |
| 20260902203106 | 101 | 136 | 2.0 | 7.0 | 0.00 | 0.00 | 0.00 | 36 | 1011.0 |
| 20260902203005 | 101 | 157 | 2.0 | 6.0 | 0.00 | 0.00 | 0.00 | 36 | 1011.0 |
| 20260902202906 | 101 | 184 | 2.0 | 6.0 | 0.00 | 0.00 | 0.00 | 36 | 1011.0 |
| 20260902202805 | 101 | 209 | 2.0 | 6.0 | 0.00 | 0.00 | 0.00 | 36 | 1011.0 |
| 20260902202705 | 101 | 229 | 2.0 | 6.0 | 0.00 | 0.00 | 0.00 | 36 | 1011.1 |
| 20260902202605 | 101 | 242 | 2.0 | 4.0 | 0.00 | 0.00 | 0.00 | 35 | 1011.1 |
| 20260902202505 | 101 | 248 | 2.0 | 6.0 | 0.00 | 0.00 | 0.00 | 35 | 1011.1 |
| 20260902202405 | 101 | 260 | 2.0 | 6.0 | 0.00 | 0.00 | 0.00 | 34 | 1011.1 |
| 20260902202306 | 101 | 266 | 2.0 | 6.0 | 0.00 | 0.00 | 0.00 | 34 | 1011.1 |
| 20260902202205 | 101 | 270 | 2.0 | 6.0 | 0.00 | 0.00 | 0.00 | 36 | 1011.2 |
| 20260902202106 | 101 | 268 | 2.0 | 6.0 | 0.00 | 0.00 | 0.00 | 35 | 1011.2 |
| 20260902202005 | 101 | 267 | 2.0 | 6.0 | 0.00 | 0.00 | 0.00 | 36 | 1011.1 |
| 20260902201805 | 101 | 270 | 3.0 | 6.0 | 0.00 | 0.00 | 0.00 | 37 | 1011.2 |
| 20260902201505 | 100 | 275 | 3.0 | 6.0 | 0.00 | 0.00 | 0.00 | 38 | 1011.3 |
| 20260902201405 | 99 | 275 | 2.0 | 6.0 | 0.00 | 0.00 | 0.00 | 38 | 1011.3 |
| 20260902201305 | 99 | 277 | 3.0 | 5.0 | 0.00 | 0.00 | 0.00 | 38 | 1011.3 |
| 20260902201205 | 99 | 276 | 3.0 | 6.0 | 0.00 | 0.00 | 0.00 | 38 | 1011.4 |
| 20260902201105 | 99 | 283 | 3.0 | 11.0 | 0.00 | 0.00 | 0.00 | 38 | 1011.4 |
| 20260902201005 | 99 | 288 | 3.0 | 11.0 | 0.00 | 0.00 | 0.00 | 39 | 1011.5 |
| 20260902200905 | 98 | 290 | 3.0 | 11.0 | 0.00 | 0.00 | 0.00 | 40 | 1011.4 |
| 20260902200805 | 98 | 295 | 3.0 | 11.0 | 0.00 | 0.00 | 0.00 | 40 | 1011.5 |
| 20260902200705 | 98 | 309 | 4.0 | 11.0 | 0.00 | 0.00 | 0.00 | 40 | 1011.6 |
| 20260902200605 | 98 | 323 | 4.0 | 11.0 | 0.00 | 0.00 | 0.00 | 40 | 1011.6 |
| 20260902200505 | 97 | 335 | 4.0 | 11.0 | 0.00 | 0.00 | 0.00 | 40 | 1011.6 |
| 20260902200405 | 98 | 344 | 3.0 | 11.0 | 0.00 | 0.00 | 0.00 | 40 | 1011.6 |
| 20260902200306 | 98 | 351 | 3.0 | 11.0 | 0.00 | 0.00 | 0.00 | 40 | 1011.6 |
| 20260902200205 | 98 | 6 | 3.0 | 11.0 | 0.00 | 0.00 | 0.00 | 41 | 1011.6 |
| 20260902200106 | 98 | 32 | 3.0 | 7.0 | 0.00 | 0.00 | 0.00 | 41 | 1011.6 |
| 20260902200005 | 97 | 40 | 4.0 | 7.0 | 0.00 | 0.00 | 0.00 | 40 | 1011.6 |
| 20260902195904 | 98 | 45 | 4.0 | 9.0 | 0.00 | 0.00 | 0.00 | 40 | 1011.6 |
| 20260902195705 | 98 | 48 | 3.0 | 9.0 | 0.00 | 0.00 | 0.00 | 40 | 1011.6 |
| 20260902195505 | 98 | 43 | 3.0 | 9.0 | 0.00 | 0.00 | 0.00 | 40 | 1011.6 |
| 20260902195306 | 98 | 41 | 3.0 | 9.0 | 0.00 | 0.00 | 0.00 | 40 | 1011.6 |
| 20260902195205 | 98 | 42 | 3.0 | 9.0 | 0.00 | 0.00 | 0.00 | 40 | 1011.7 |
| 20260902194905 | 98 | 335 | 3.0 | 6.0 | 0.00 | 0.00 | 0.00 | 39 | 1011.8 |
| 20260902194805 | 98 | 316 | 3.0 | 8.0 | 0.00 | 0.00 | 0.00 | 39 | 1011.7 |
| 20260902194605 | 99 | 322 | 4.0 | 12.0 | 0.00 | 0.00 | 0.00 | 38 | 1011.8 |
| 20260902194505 | 100 | 330 | 4.0 | 12.0 | 0.00 | 0.00 | 0.00 | 37 | 1011.8 |
| 20260902194405 | 100 | 338 | 5.0 | 12.0 | 0.00 | 0.00 | 0.00 | 37 | 1011.8 |
| 20260902194305 | 101 | 345 | 5.0 | 12.0 | 0.00 | 0.00 | 0.00 | 36 | 1011.8 |
| 20260902194205 | 102 | 348 | 5.0 | 12.0 | 0.00 | 0.00 | 0.00 | 37 | 1011.8 |
| 20260902194105 | 102 | 353 | 5.0 | 12.0 | 0.00 | 0.00 | 0.00 | 37 | 1011.9 |
| 20260902194005 | 102 | 358 | 5.0 | 12.0 | 0.00 | 0.00 | 0.00 | 36 | 1011.9 |
| 20260902193905 | 102 | 1 | 5.0 | 12.0 | 0.00 | 0.00 | 0.00 | 37 | 1012.0 |
| 20260902193805 | 102 | 5 | 5.0 | 12.0 | 0.00 | 0.00 | 0.00 | 37 | 1011.9 |
| 20260902193705 | 102 | 12 | 5.0 | 11.0 | 0.00 | 0.00 | 0.00 | 37 | 1011.9 |
| 20260902193605 | 102 | 12 | 4.0 | 11.0 | 0.00 | 0.00 | 0.00 | 38 | 1011.9 |
| 20260902193405 | 101 | 9 | 3.0 | 10.0 | 0.00 | 0.00 | 0.00 | 38 | 1011.9 |
| 20260902193205 | 101 | 20 | 3.0 | 10.0 | 0.00 | 0.00 | 0.00 | 37 | 1012.1 |
| 20260902193105 | 101 | 24 | 3.0 | 10.0 | 0.00 | 0.00 | 0.00 | 39 | 1012.0 |
| 20260902193005 | 100 | 32 | 3.0 | 10.0 | 0.00 | 0.00 | 0.00 | 40 | 1012.0 |
| 20260902192805 | 99 | 59 | 4.0 | 11.0 | 0.00 | 0.00 | 0.00 | 39 | 1012.1 |
| 20260902192706 | 98 | 67 | 4.0 | 11.0 | 0.00 | 0.00 | 0.00 | 39 | 1012.1 |
| 20260902192605 | 98 | 71 | 4.0 | 11.0 | 0.00 | 0.00 | 0.00 | 39 | 1012.1 |
| 20260902192505 | 99 | 67 | 4.0 | 11.0 | 0.00 | 0.00 | 0.00 | 39 | 1012.2 |
| 20260902192405 | 99 | 66 | 4.0 | 11.0 | 0.00 | 0.00 | 0.00 | 39 | 1012.2 |
| 20260902192307 | 99 | 59 | 4.0 | 11.0 | 0.00 | 0.00 | 0.00 | 39 | 1012.2 |
| 20260902192205 | 98 | 50 | 4.0 | 11.0 | 0.00 | 0.00 | 0.00 | 39 | 1012.2 |
| 20260902192105 | 99 | 37 | 4.0 | 11.0 | 0.00 | 0.00 | 0.00 | 39 | 1012.2 |
| 20260902192006 | 98 | 17 | 5.0 | 11.0 | 0.00 | 0.00 | 0.00 | 39 | 1012.3 |
| 20260902191905 | 99 | 359 | 4.0 | 11.0 | 0.00 | 0.00 | 0.00 | 39 | 1012.3 |
| 20260902191806 | 99 | 341 | 4.0 | 10.0 | 0.00 | 0.00 | 0.00 | 40 | 1012.3 |
| 20260902191705 | 99 | 334 | 4.0 | 10.0 | 0.00 | 0.00 | 0.00 | 39 | 1012.3 |
| 20260902191605 | 99 | 331 | 4.0 | 10.0 | 0.00 | 0.00 | 0.00 | 39 | 1012.3 |
| 20260902191405 | 99 | 327 | 5.0 | 10.0 | 0.00 | 0.00 | 0.00 | 41 | 1012.4 |
| 20260902191205 | 98 | 330 | 5.0 | 11.0 | 0.00 | 0.00 | 0.00 | 40 | 1012.5 |
| 20260902191106 | 98 | 330 | 5.0 | 11.0 | 0.00 | 0.00 | 0.00 | 40 | 1012.5 |
| 20260902191005 | 99 | 329 | 5.0 | 11.0 | 0.00 | 0.00 | 0.00 | 39 | 1012.5 |
| 20260902190905 | 99 | 330 | 5.0 | 11.0 | 0.00 | 0.00 | 0.00 | 39 | 1012.5 |
| 20260902190804 | 99 | 331 | 4.0 | 11.0 | 0.00 | 0.00 | 0.00 | 39 | 1012.6 |
| 20260902190706 | 100 | 329 | 4.0 | 11.0 | 0.00 | 0.00 | 0.00 | 39 | 1012.5 |
| 20260902190605 | 100 | 330 | 4.0 | 11.0 | 0.00 | 0.00 | 0.00 | 38 | 1012.6 |
| 20260902190505 | 100 | 335 | 4.0 | 11.0 | 0.00 | 0.00 | 0.00 | 40 | 1012.5 |
| 20260902190405 | 99 | 344 | 3.0 | 11.0 | 0.00 | 0.00 | 0.00 | 40 | 1012.5 |
| 20260902190306 | 99 | 357 | 3.0 | 8.0 | 0.00 | 0.00 | 0.00 | 39 | 1012.6 |
| 20260902190205 | 99 | 11 | 3.0 | 8.0 | 0.00 | 0.00 | 0.00 | 39 | 1012.6 |
| 20260902190105 | 99 | 46 | 3.0 | 8.0 | 0.00 | 0.00 | 0.00 | 39 | 1012.6 |
| 20260902190005 | 100 | 61 | 3.0 | 8.0 | 0.00 | 0.00 | 0.00 | 38 | 1012.7 |
| 20260902185905 | 100 | 61 | 3.0 | 8.0 | 0.00 | 0.00 | 0.00 | 38 | 1012.7 |
| 20260902185805 | 101 | 63 | 3.0 | 8.0 | 0.00 | 0.00 | 0.00 | 38 | 1012.6 |
| 20260902185506 | 99 | 61 | 2.0 | 8.0 | 0.00 | 0.00 | 0.00 | 40 | 1012.6 |
| 20260902185307 | 100 | 43 | 2.0 | 6.0 | 0.00 | 0.00 | 0.00 | 39 | 1012.7 |
| 20260902185208 | 100 | 30 | 3.0 | 6.0 | 0.00 | 0.00 | 0.00 | 39 | 1012.7 |
| 20260902185105 | 99 | 7 | 3.0 | 6.0 | 0.00 | 0.00 | 0.00 | 41 | 1012.8 |
| 20260902185005 | 99 | 349 | 3.0 | 7.0 | 0.00 | 0.00 | 0.00 | 41 | 1012.7 |
| 20260902184905 | 98 | 337 | 3.0 | 10.0 | 0.00 | 0.00 | 0.00 | 41 | 1012.7 |
| 20260902184805 | 98 | 334 | 4.0 | 10.0 | 0.00 | 0.00 | 0.00 | 41 | 1012.8 |
| 20260902184705 | 98 | 331 | 4.0 | 10.0 | 0.00 | 0.00 | 0.00 | 41 | 1012.8 |
| 20260902184605 | 98 | 335 | 5.0 | 10.0 | 0.00 | 0.00 | 0.00 | 41 | 1012.8 |
| 20260902184405 | 98 | 332 | 5.0 | 10.0 | 0.00 | 0.00 | 0.00 | 41 | 1012.8 |
| 20260902184306 | 98 | 330 | 5.0 | 10.0 | 0.00 | 0.00 | 0.00 | 40 | 1012.9 |
| 20260902184205 | 99 | 328 | 5.0 | 10.0 | 0.00 | 0.00 | 0.00 | 40 | 1012.9 |
| 20260902184105 | 100 | 327 | 5.0 | 10.0 | 0.00 | 0.00 | 0.00 | 39 | 1013.0 |
| 20260902184005 | 100 | 327 | 4.0 | 10.0 | 0.00 | 0.00 | 0.00 | 40 | 1013.0 |
| 20260902183305 | 99 | 305 | 2.0 | 7.0 | 0.00 | 0.00 | 0.00 | 41 | 1013.0 |
| 20260902183205 | 98 | 308 | 2.0 | 7.0 | 0.00 | 0.00 | 0.00 | 41 | 1013.0 |
| 20260902183105 | 98 | 312 | 3.0 | 7.0 | 0.00 | 0.00 | 0.00 | 41 | 1013.0 |
| 20260902183007 | 98 | 309 | 3.0 | 9.0 | 0.00 | 0.00 | 0.00 | 41 | 1013.1 |
| 20260902182905 | 99 | 307 | 3.0 | 9.0 | 0.00 | 0.00 | 0.00 | 41 | 1013.1 |
| 20260902182604 | 98 | 308 | 4.0 | 9.0 | 0.00 | 0.00 | 0.00 | 40 | 1013.1 |
| 20260902182405 | 98 | 299 | 5.0 | 9.0 | 0.00 | 0.00 | 0.00 | 40 | 1013.2 |
| 20260902182306 | 99 | 297 | 5.0 | 11.0 | 0.00 | 0.00 | 0.00 | 40 | 1013.2 |
| 20260902182205 | 98 | 295 | 5.0 | 11.0 | 0.00 | 0.00 | 0.00 | 41 | 1013.2 |
| 20260902182105 | 98 | 291 | 4.0 | 11.0 | 0.00 | 0.00 | 0.00 | 42 | 1013.3 |
| 20260902182005 | 98 | 289 | 4.0 | 11.0 | 0.00 | 0.00 | 0.00 | 41 | 1013.3 |
| 20260902181905 | 98 | 288 | 4.0 | 11.0 | 0.00 | 0.00 | 0.00 | 40 | 1013.3 |
| 20260902181804 | 98 | 287 | 4.0 | 11.0 | 0.00 | 0.00 | 0.00 | 40 | 1013.4 |
| 20260902181705 | 98 | 286 | 4.0 | 11.0 | 0.00 | 0.00 | 0.00 | 40 | 1013.4 |
| 20260902181506 | 99 | 287 | 4.0 | 11.0 | 0.00 | 0.00 | 0.00 | 40 | 1013.4 |
| 20260902181404 | 99 | 288 | 4.0 | 12.0 | 0.00 | 0.00 | 0.00 | 41 | 1013.4 |
| 20260902181305 | 99 | 289 | 4.0 | 12.0 | 0.00 | 0.00 | 0.00 | 41 | 1013.4 |
| 20260902181105 | 98 | 302 | 4.0 | 12.0 | 0.00 | 0.00 | 0.00 | 41 | 1013.5 |
| 20260902181005 | 98 | 299 | 4.0 | 12.0 | 0.00 | 0.00 | 0.00 | 40 | 1013.5 |
| 20260902180905 | 98 | 296 | 4.0 | 12.0 | 0.00 | 0.00 | 0.00 | 40 | 1013.5 |
| 20260902180805 | 98 | 293 | 4.0 | 12.0 | 0.00 | 0.00 | 0.00 | 40 | 1013.5 |
| 20260902180605 | 98 | 284 | 4.0 | 12.0 | 0.00 | 0.00 | 0.00 | 41 | 1013.5 |
| 20260902180504 | 98 | 283 | 3.0 | 12.0 | 0.00 | 0.00 | 0.00 | 41 | 1013.5 |
| 20260902180405 | 99 | 281 | 4.0 | 10.0 | 0.00 | 0.00 | 0.00 | 39 | 1013.6 |
| 20260902180304 | 99 | 276 | 3.0 | 10.0 | 0.00 | 0.00 | 0.00 | 41 | 1013.6 |
| 20260902180205 | 99 | 263 | 3.0 | 8.0 | 0.00 | 0.00 | 0.00 | 41 | 1013.6 |
| 20260902180105 | 99 | 255 | 4.0 | 8.0 | 0.00 | 0.00 | 0.00 | 41 | 1013.6 |
| 20260902180007 | 99 | 256 | 4.0 | 8.0 | 0.00 | 0.00 | 0.00 | 42 | 1013.7 |
| 20260902175905 | 98 | 258 | 3.0 | 8.0 | 0.00 | 0.00 | 0.00 | 41 | 1013.6 |
| 20260902175705 | 98 | 259 | 4.0 | 8.0 | 0.00 | 0.00 | 0.00 | 42 | 1013.6 |
| 20260902175605 | 98 | 255 | 4.0 | 8.0 | 0.00 | 0.00 | 0.00 | 41 | 1013.7 |
| 20260902175505 | 98 | 242 | 4.0 | 8.0 | 0.00 | 0.00 | 0.00 | 41 | 1013.7 |
| 20260902175404 | 98 | 232 | 3.0 | 8.0 | 0.00 | 0.00 | 0.00 | 41 | 1013.7 |
| 20260902175307 | 98 | 221 | 3.0 | 8.0 | 0.00 | 0.00 | 0.00 | 41 | 1013.7 |
| 20260902175105 | 98 | 219 | 3.0 | 8.0 | 0.00 | 0.00 | 0.00 | 43 | 1013.8 |
| 20260902174905 | 97 | 228 | 3.0 | 7.0 | 0.00 | 0.00 | 0.00 | 42 | 1013.8 |
| 20260902174805 | 97 | 229 | 3.0 | 7.0 | 0.00 | 0.00 | 0.00 | 42 | 1013.8 |
| 20260902174706 | 98 | 235 | 3.0 | 7.0 | 0.00 | 0.00 | 0.00 | 42 | 1013.9 |
| 20260902174606 | 97 | 246 | 3.0 | 7.0 | 0.00 | 0.00 | 0.00 | 42 | 1013.9 |
| 20260902174505 | 97 | 289 | 3.0 | 7.0 | 0.00 | 0.00 | 0.00 | 43 | 1013.9 |
| 20260902174204 | 97 | 343 | 3.0 | 7.0 | 0.00 | 0.00 | 0.00 | 43 | 1014.0 |
| 20260902174105 | 97 | 346 | 3.0 | 7.0 | 0.00 | 0.00 | 0.00 | 42 | 1014.0 |
| 20260902174004 | 97 | 357 | 3.0 | 7.0 | 0.00 | 0.00 | 0.00 | 42 | 1014.1 |
| 20260902173905 | 97 | 346 | 3.0 | 7.0 | 0.00 | 0.00 | 0.00 | 42 | 1014.0 |
| 20260902173805 | 97 | 322 | 4.0 | 7.0 | 0.00 | 0.00 | 0.00 | 42 | 1014.1 |
| 20260902173704 | 97 | 306 | 3.0 | 7.0 | 0.00 | 0.00 | 0.00 | 43 | 1014.1 |
| 20260902173605 | 97 | 303 | 3.0 | 7.0 | 0.00 | 0.00 | 0.00 | 43 | 1014.1 |
| 20260902173505 | 97 | 292 | 3.0 | 7.0 | 0.00 | 0.00 | 0.00 | 42 | 1014.2 |
| 20260902173405 | 97 | 295 | 3.0 | 7.0 | 0.00 | 0.00 | 0.00 | 42 | 1014.3 |
| 20260902173305 | 97 | 300 | 3.0 | 7.0 | 0.00 | 0.00 | 0.00 | 42 | 1014.2 |
| 20260902173205 | 97 | 304 | 3.0 | 7.0 | 0.00 | 0.00 | 0.00 | 43 | 1014.2 |
| 20260902173106 | 98 | 318 | 3.0 | 7.0 | 0.00 | 0.00 | 0.00 | 41 | 1014.2 |
| 20260902173005 | 98 | 326 | 3.0 | 7.0 | 0.00 | 0.00 | 0.00 | 41 | 1014.2 |
| 20260902172905 | 98 | 331 | 3.0 | 7.0 | 0.00 | 0.00 | 0.00 | 41 | 1014.2 |
| 20260902172804 | 98 | 338 | 3.0 | 7.0 | 0.00 | 0.00 | 0.00 | 42 | 1014.3 |
| 20260902172604 | 97 | 333 | 3.0 | 7.0 | 0.00 | 0.00 | 0.00 | 43 | 1014.3 |
| 20260902172505 | 97 | 325 | 3.0 | 7.0 | 0.00 | 0.00 | 0.00 | 43 | 1014.2 |
| 20260902172405 | 97 | 308 | 3.0 | 7.0 | 0.00 | 0.00 | 0.00 | 42 | 1014.3 |
| 20260902172308 | 97 | 306 | 3.0 | 7.0 | 0.00 | 0.00 | 0.00 | 42 | 1014.3 |
| 20260902172205 | 97 | 307 | 3.0 | 7.0 | 0.00 | 0.00 | 0.00 | 41 | 1014.3 |
| 20260902172006 | 97 | 307 | 3.0 | 6.0 | 0.00 | 0.00 | 0.00 | 43 | 1014.3 |
| 20260902171904 | 97 | 306 | 2.0 | 8.0 | 0.00 | 0.00 | 0.00 | 42 | 1014.4 |
| 20260902171805 | 97 | 301 | 3.0 | 8.0 | 0.00 | 0.00 | 0.00 | 43 | 1014.3 |
| 20260902171705 | 97 | 295 | 3.0 | 8.0 | 0.00 | 0.00 | 0.00 | 43 | 1014.3 |
| 20260902171604 | 97 | 297 | 3.0 | 8.0 | 0.00 | 0.00 | 0.00 | 43 | 1014.4 |
| 20260902171505 | 96 | 303 | 3.0 | 8.0 | 0.00 | 0.00 | 0.00 | 43 | 1014.4 |
| 20260902171305 | 97 | 307 | 4.0 | 9.0 | 0.00 | 0.00 | 0.00 | 42 | 1014.4 |
| 20260902171205 | 97 | 306 | 5.0 | 9.0 | 0.00 | 0.00 | 0.00 | 44 | 1014.4 |
| 20260902171105 | 97 | 303 | 5.0 | 9.0 | 0.00 | 0.00 | 0.00 | 44 | 1014.4 |
| 20260902171005 | 96 | 300 | 5.0 | 10.0 | 0.00 | 0.00 | 0.00 | 44 | 1014.5 |
| 20260902170905 | 96 | 299 | 5.0 | 11.0 | 0.00 | 0.00 | 0.00 | 44 | 1014.5 |
| 20260902170805 | 96 | 297 | 6.0 | 11.0 | 0.00 | 0.00 | 0.00 | 43 | 1014.5 |
| 20260902170505 | 97 | 307 | 6.0 | 16.0 | 0.00 | 0.00 | 0.00 | 42 | 1014.6 |
| 20260902170404 | 97 | 308 | 5.0 | 16.0 | 0.00 | 0.00 | 0.00 | 43 | 1014.5 |
| 20260902170204 | 97 | 309 | 5.0 | 16.0 | 0.00 | 0.00 | 0.00 | 42 | 1014.5 |
| 20260902170105 | 97 | 310 | 4.0 | 16.0 | 0.00 | 0.00 | 0.00 | 43 | 1014.5 |
| 20260902170004 | 96 | 310 | 4.0 | 16.0 | 0.00 | 0.00 | 0.00 | 43 | 1014.7 |
| 20260902165905 | 96 | 311 | 4.0 | 16.0 | 0.00 | 0.00 | 0.00 | 43 | 1014.7 |
| 20260902165804 | 96 | 316 | 3.0 | 16.0 | 0.00 | 0.00 | 0.00 | 43 | 1014.6 |
| 20260902165705 | 96 | 321 | 3.0 | 9.0 | 0.00 | 0.00 | 0.00 | 44 | 1014.7 |
| 20260902165604 | 96 | 314 | 3.0 | 9.0 | 0.00 | 0.00 | 0.00 | 44 | 1014.7 |
| 20260902165505 | 96 | 308 | 3.0 | 9.0 | 0.00 | 0.00 | 0.00 | 43 | 1014.7 |
| 20260902165404 | 96 | 295 | 3.0 | 9.0 | 0.00 | 0.00 | 0.00 | 44 | 1014.6 |
| 20260902165309 | 96 | 289 | 3.0 | 9.0 | 0.00 | 0.00 | 0.00 | 44 | 1014.7 |
| 20260902165105 | 96 | 276 | 4.0 | 9.0 | 0.00 | 0.00 | 0.00 | 43 | 1014.7 |
| 20260902165006 | 96 | 263 | 4.0 | 9.0 | 0.00 | 0.00 | 0.00 | 43 | 1014.7 |
| 20260902164905 | 96 | 251 | 4.0 | 9.0 | 0.00 | 0.00 | 0.00 | 44 | 1014.6 |
| 20260902164804 | 96 | 235 | 4.0 | 9.0 | 0.00 | 0.00 | 0.00 | 43 | 1014.7 |
| 20260902164505 | 96 | 210 | 4.0 | 9.0 | 0.00 | 0.00 | 0.00 | 44 | 1014.7 |
| 20260902164405 | 96 | 210 | 4.0 | 9.0 | 0.00 | 0.00 | 0.00 | 44 | 1014.7 |
| 20260902164305 | 95 | 209 | 4.0 | 9.0 | 0.00 | 0.00 | 0.00 | 44 | 1014.8 |
| 20260902164205 | 96 | 208 | 4.0 | 9.0 | 0.00 | 0.00 | 0.00 | 44 | 1014.8 |
| 20260902164004 | 95 | 219 | 4.0 | 9.0 | 0.00 | 0.00 | 0.00 | 44 | 1014.8 |
| 20260902163805 | 95 | 226 | 4.0 | 9.0 | 0.00 | 0.00 | 0.00 | 44 | 1014.8 |
| 20260902163705 | 95 | 230 | 4.0 | 9.0 | 0.00 | 0.00 | 0.00 | 45 | 1014.8 |
| 20260902163605 | 95 | 238 | 4.0 | 8.0 | 0.00 | 0.00 | 0.00 | 45 | 1014.8 |
| 20260902163505 | 95 | 255 | 3.0 | 8.0 | 0.00 | 0.00 | 0.00 | 46 | 1014.8 |
| 20260902163404 | 94 | 264 | 3.0 | 8.0 | 0.00 | 0.00 | 0.00 | 45 | 1014.8 |
| 20260902163305 | 94 | 270 | 3.0 | 8.0 | 0.00 | 0.00 | 0.00 | 45 | 1014.8 |
| 20260902163205 | 94 | 275 | 3.0 | 8.0 | 0.00 | 0.00 | 0.00 | 46 | 1014.8 |
| 20260902163005 | 94 | 278 | 3.0 | 8.0 | 0.00 | 0.00 | 0.00 | 46 | 1014.8 |
| 20260902162905 | 94 | 280 | 3.0 | 8.0 | 0.00 | 0.00 | 0.00 | 46 | 1014.9 |
| 20260902162805 | 95 | 281 | 3.0 | 8.0 | 0.00 | 0.00 | 0.00 | 45 | 1014.9 |
| 20260902162705 | 95 | 281 | 3.0 | 8.0 | 0.00 | 0.00 | 0.00 | 45 | 1014.9 |
| 20260902162605 | 95 | 283 | 3.0 | 8.0 | 0.00 | 0.00 | 0.00 | 45 | 1014.9 |
| 20260902162505 | 95 | 280 | 3.0 | 6.0 | 0.00 | 0.00 | 0.00 | 46 | 1014.9 |
| 20260902162405 | 95 | 275 | 2.0 | 6.0 | 0.00 | 0.00 | 0.00 | 45 | 1014.9 |
| 20260902162307 | 95 | 279 | 2.0 | 6.0 | 0.00 | 0.00 | 0.00 | 46 | 1014.9 |
| 20260902162205 | 95 | 288 | 2.0 | 6.0 | 0.00 | 0.00 | 0.00 | 46 | 1014.9 |
| 20260902162105 | 95 | 291 | 3.0 | 6.0 | 0.00 | 0.00 | 0.00 | 45 | 1014.9 |
| 20260902162005 | 95 | 298 | 3.0 | 6.0 | 0.00 | 0.00 | 0.00 | 46 | 1014.9 |
| 20260902161905 | 95 | 302 | 3.0 | 7.0 | 0.00 | 0.00 | 0.00 | 46 | 1014.9 |
| 20260902161805 | 95 | 299 | 3.0 | 7.0 | 0.00 | 0.00 | 0.00 | 46 | 1014.9 |
| 20260902161705 | 95 | 292 | 3.0 | 7.0 | 0.00 | 0.00 | 0.00 | 46 | 1014.9 |
| 20260902161605 | 95 | 280 | 3.0 | 7.0 | 0.00 | 0.00 | 0.00 | 46 | 1014.9 |
| 20260902161506 | 94 | 281 | 3.0 | 7.0 | 0.00 | 0.00 | 0.00 | 46 | 1014.9 |
| 20260902161405 | 94 | 298 | 3.0 | 7.0 | 0.00 | 0.00 | 0.00 | 47 | 1014.9 |
| 20260902161305 | 95 | 308 | 3.0 | 7.0 | 0.00 | 0.00 | 0.00 | 46 | 1015.0 |
| 20260902161205 | 94 | 308 | 3.0 | 8.0 | 0.00 | 0.00 | 0.00 | 46 | 1015.0 |
| 20260902161105 | 94 | 307 | 3.0 | 8.0 | 0.00 | 0.00 | 0.00 | 47 | 1015.0 |
| 20260902161005 | 94 | 302 | 3.0 | 8.0 | 0.00 | 0.00 | 0.00 | 46 | 1015.0 |
| 20260902160905 | 94 | 293 | 3.0 | 8.0 | 0.00 | 0.00 | 0.00 | 46 | 1015.0 |
| 20260902160805 | 94 | 293 | 3.0 | 8.0 | 0.00 | 0.00 | 0.00 | 46 | 1015.0 |
| 20260902160705 | 94 | 297 | 3.0 | 8.0 | 0.00 | 0.00 | 0.00 | 47 | 1015.0 |
| 20260902160604 | 94 | 305 | 3.0 | 8.0 | 0.00 | 0.00 | 0.00 | 47 | 1015.0 |
| 20260902160505 | 93 | 304 | 3.0 | 8.0 | 0.00 | 0.00 | 0.00 | 48 | 1015.0 |
| 20260902160305 | 93 | 290 | 3.0 | 8.0 | 0.00 | 0.00 | 0.00 | 49 | 1015.0 |
| 20260902160104 | 92 | 284 | 3.0 | 7.0 | 0.00 | 0.00 | 0.00 | 49 | 1015.1 |
| 20260902160007 | 92 | 288 | 3.0 | 7.0 | 0.00 | 0.00 | 0.00 | 49 | 1015.0 |
| 20260902155904 | 92 | 291 | 4.0 | 7.0 | 0.00 | 0.00 | 0.00 | 50 | 1015.0 |
| 20260902155805 | 92 | 291 | 4.0 | 7.0 | 0.00 | 0.00 | 0.00 | 49 | 1015.0 |
| 20260902155505 | 93 | 294 | 4.0 | 9.0 | 0.00 | 0.00 | 0.00 | 48 | 1015.2 |
| 20260902155405 | 93 | 296 | 4.0 | 9.0 | 0.00 | 0.00 | 0.00 | 49 | 1015.2 |
| 20260902155307 | 93 | 297 | 4.0 | 9.0 | 0.00 | 0.00 | 0.00 | 50 | 1015.2 |
| 20260902155205 | 92 | 301 | 4.0 | 9.0 | 0.00 | 0.00 | 0.00 | 49 | 1015.1 |
| 20260902155104 | 92 | 300 | 4.0 | 9.0 | 0.00 | 0.00 | 0.00 | 50 | 1015.1 |
| 20260902155005 | 92 | 299 | 4.0 | 9.0 | 0.00 | 0.00 | 0.00 | 50 | 1015.1 |
| 20260902154805 | 92 | 303 | 4.0 | 9.0 | 0.00 | 0.00 | 0.00 | 50 | 1015.1 |
| 20260902154705 | 92 | 304 | 4.0 | 9.0 | 0.00 | 0.00 | 0.00 | 50 | 1015.1 |
| 20260902154604 | 92 | 308 | 4.0 | 9.0 | 0.00 | 0.00 | 0.00 | 50 | 1015.1 |
| 20260902154505 | 92 | 308 | 4.0 | 9.0 | 0.00 | 0.00 | 0.00 | 50 | 1015.1 |
| 20260902154404 | 92 | 309 | 4.0 | 9.0 | 0.00 | 0.00 | 0.00 | 50 | 1015.1 |
| 20260902154304 | 92 | 311 | 4.0 | 9.0 | 0.00 | 0.00 | 0.00 | 50 | 1015.1 |
| 20260902154105 | 92 | 307 | 4.0 | 9.0 | 0.00 | 0.00 | 0.00 | 50 | 1015.1 |
| 20260902154004 | 92 | 303 | 3.0 | 8.0 | 0.00 | 0.00 | 0.00 | 50 | 1015.1 |
| 20260902153905 | 92 | 296 | 3.0 | 8.0 | 0.00 | 0.00 | 0.00 | 50 | 1015.1 |
| 20260902153804 | 92 | 292 | 4.0 | 8.0 | 0.00 | 0.00 | 0.00 | 50 | 1015.1 |
| 20260902153705 | 92 | 291 | 4.0 | 8.0 | 0.00 | 0.00 | 0.00 | 50 | 1015.1 |
| 20260902153604 | 92 | 289 | 3.0 | 8.0 | 0.00 | 0.00 | 0.00 | 51 | 1015.1 |
| 20260902153505 | 92 | 290 | 3.0 | 7.0 | 0.00 | 0.00 | 0.00 | 51 | 1015.1 |
| 20260902153204 | 91 | 295 | 3.0 | 8.0 | 0.00 | 0.00 | 0.00 | 52 | 1015.1 |
| 20260902153105 | 91 | 289 | 3.0 | 8.0 | 0.00 | 0.00 | 0.00 | 52 | 1015.1 |
| 20260902153004 | 91 | 289 | 3.0 | 8.0 | 0.00 | 0.00 | 0.00 | 52 | 1015.1 |
| 20260902152905 | 91 | 287 | 3.0 | 8.0 | 0.00 | 0.00 | 0.00 | 52 | 1015.1 |
| 20260902152804 | 91 | 283 | 3.0 | 8.0 | 0.00 | 0.00 | 0.00 | 52 | 1015.1 |
| 20260902152704 | 91 | 278 | 3.0 | 8.0 | 0.00 | 0.00 | 0.00 | 52 | 1015.1 |
| 20260902152505 | 91 | 270 | 3.0 | 8.0 | 0.00 | 0.00 | 0.00 | 52 | 1015.2 |
| 20260902152404 | 91 | 259 | 3.0 | 8.0 | 0.00 | 0.00 | 0.00 | 52 | 1015.1 |
| 20260902152307 | 91 | 255 | 3.0 | 8.0 | 0.00 | 0.00 | 0.00 | 53 | 1015.1 |
| 20260902152105 | 90 | 259 | 3.0 | 9.0 | 0.00 | 0.00 | 0.00 | 54 | 1015.2 |
| 20260902152005 | 90 | 257 | 3.0 | 9.0 | 0.00 | 0.00 | 0.00 | 54 | 1015.2 |
| 20260902151905 | 90 | 257 | 3.0 | 9.0 | 0.00 | 0.00 | 0.00 | 53 | 1015.1 |
| 20260902151805 | 90 | 255 | 4.0 | 9.0 | 0.00 | 0.00 | 0.00 | 54 | 1015.1 |
| 20260902151604 | 90 | 258 | 4.0 | 9.0 | 0.00 | 0.00 | 0.00 | 54 | 1015.1 |
| 20260902151505 | 90 | 258 | 4.0 | 9.0 | 0.00 | 0.00 | 0.00 | 54 | 1015.1 |
| 20260902151404 | 90 | 258 | 5.0 | 9.0 | 0.00 | 0.00 | 0.00 | 55 | 1015.1 |
| 20260902151305 | 90 | 256 | 4.0 | 9.0 | 0.00 | 0.00 | 0.00 | 55 | 1015.1 |
| 20260902151105 | 89 | 260 | 4.0 | 8.0 | 0.00 | 0.00 | 0.00 | 55 | 1015.1 |
| 20260902151005 | 89 | 265 | 4.0 | 8.0 | 0.00 | 0.00 | 0.00 | 55 | 1015.1 |
| 20260902150905 | 89 | 270 | 3.0 | 8.0 | 0.00 | 0.00 | 0.00 | 55 | 1015.1 |
| 20260902150704 | 89 | 287 | 2.0 | 7.0 | 0.00 | 0.00 | 0.00 | 55 | 1015.1 |
| 20260902150604 | 89 | 289 | 2.0 | 7.0 | 0.00 | 0.00 | 0.00 | 55 | 1015.1 |
| 20260902150505 | 89 | 290 | 2.0 | 7.0 | 0.00 | 0.00 | 0.00 | 56 | 1015.1 |
| 20260902150404 | 89 | 293 | 1.0 | 6.0 | 0.00 | 0.00 | 0.00 | 56 | 1015.1 |
| 20260902150305 | 89 | 313 | 1.0 | 6.0 | 0.00 | 0.00 | 0.00 | 56 | 1015.1 |
| 20260902150204 | 89 | 22 | 1.0 | 4.0 | 0.00 | 0.00 | 0.00 | 57 | 1015.1 |
| 20260902150105 | 89 | 92 | 2.0 | 5.0 | 0.00 | 0.00 | 0.00 | 57 | 1015.1 |
| 20260902150004 | 89 | 97 | 2.0 | 6.0 | 0.00 | 0.00 | 0.00 | 57 | 1015.1 |
| 20260902145905 | 88 | 97 | 2.0 | 6.0 | 0.00 | 0.00 | 0.00 | 58 | 1015.1 |
| 20260902145705 | 88 | 100 | 2.0 | 6.0 | 0.00 | 0.00 | 0.00 | 59 | 1015.1 |
| 20260902145505 | 87 | 95 | 2.0 | 6.0 | 0.00 | 0.00 | 0.00 | 59 | 1015.2 |
| 20260902145404 | 88 | 93 | 2.0 | 6.0 | 0.00 | 0.00 | 0.00 | 59 | 1015.2 |
| 20260902145306 | 88 | 89 | 2.0 | 6.0 | 0.00 | 0.00 | 0.00 | 57 | 1015.2 |
| 20260902145205 | 88 | 81 | 2.0 | 6.0 | 0.00 | 0.00 | 0.00 | 58 | 1015.2 |
| 20260902145105 | 88 | 72 | 2.0 | 6.0 | 0.00 | 0.00 | 0.00 | 59 | 1015.2 |
| 20260902145005 | 88 | 56 | 2.0 | 3.0 | 0.00 | 0.00 | 0.00 | 59 | 1015.2 |